     2.00           OBSERVATION DATA    G (GPS)             RINEX VERSION / TYPE
teqc 2000Feb29 AUSLIG GPS 20000718 00:25:06UTC              PGM / RUN BY / DATE
HP-UX 10.20|PA-RISC|cc A.10.32.03|=+|=|                     COMMENT
ASHTORIN 26 - JUN - 00 10:15                                COMMENT
AMSA DGPS ANTENNA SURVEY                                    COMMENT
WRS1                                                        MARKER NAME
WEIPA RS1                                                   MARKER NUMBER
PWD AUSLIG                                                  OBSERVER / AGENCY
04268 Z-XII3 1F601D0                                        REC # / TYPE / VERS
AOAD/M_T                                                    ANT # / TYPE
 -4895452.0000  3844022.0000 -1388047.0000                  APPROX POSITION XYZ
        0.0601        0.0000        0.0000                  ANTENNA: DELTA H/E/N
     1     1                                                WAVELENGTH FACT L1/2
     5    P1    P2    L1    L2    C1                        # / TYPES OF OBSERV
    30.0000                                                 INTERVAL
  2000     6    25     4     2   30.0000000     GPS         TIME OF FIRST OBS
                                                            END OF HEADER
 00  6 25  4  2 30.0000000  0  6G18G 7G19G 2G13G 8
  24187707.5884   24187728.2154     587814.284 8    431538.56645  24187706.869
  20214486.8724   20214497.4724    -101737.121 9    -77168.96548  20214487.787
                                    218760.674 8     10023.27942  21873698.5934
                  21873709.2134     238512.906 9    157703.71447  21873699.078
  21013009.1374   21013018.5684     302609.121 9    228579.53248  21013009.200
  22018976.3804   22018986.7664     -19316.207 9    -14140.47547  22018977.080
 00  6 25  4  3  0.0000000  0  6G18G 7G19G 2G13G 8
  24207591.1834   24207611.6984     692301.190 8    512956.40445  24207590.983
  20211276.6144   20211287.2064    -118606.981 9    -90314.25448  20211277.495
                                    280181.334 8     57883.55252  21881181.1144
                  21881191.7934     277833.910 9    188343.45447  21881181.643
  21022391.6814   21022401.1174     351914.669 9    266999.39948  21022391.704
  22018082.8694   22018093.2474     -24011.580 9    -17799.21847  22018083.408
 00  6 25  4  3 30.0000000  0  7G10G18G 7G19G 2G13G 8
                                     15390.931 8      2348.81342
  24227449.1454   24227469.4704     796653.694 8    594269.50345  24227449.040
  20208140.1064   20208150.7204    -135089.186 9   -103157.47448  20208140.940
                                    341619.752 8    105757.25952  21888631.9654
                  21888642.5864     316988.301 9    218853.37147  21888632.549
  21031832.7854   21031842.2594     401528.198 9    305659.24948  21031832.818
  22017189.9064   22017200.3054     -28703.931 9    -21455.60447  22017190.405
 00  6 25  4  4  0.0000000  0  7G10G18G 7G19G 2G13G 8
                                     55044.084 8     33247.37842
  24247280.8074   24247300.9834     900867.549 8    675474.57045  24247280.680
  20205077.2464   20205087.8324    -151184.491 9   -115699.21848  20205078.027
                  25150498.6794     403074.715 8    153643.70743  21896050.6404
                  21896061.2474     355973.496 9    249231.43547  21896051.291
  21041331.8994   21041341.4654     451446.610 9    344556.67548  21041331.895
  22016297.6644   22016308.0504     -33392.772 9    -25109.25747  22016298.238
 00  6 25  4  4 30.0000000  0  7G10G18G 7G19G 2G13G 8
                                     94515.606 8     64004.11352
  24267084.4154   24267104.6154    1004934.703 8    756565.30545  24267084.245
  20202086.9464   20202097.5534    -166898.356 9   -127943.73248  20202087.751
  25162172.8204   25162193.5174     464540.102 8    201538.26945  25162171.602
  21903435.7074   21903446.3544     394782.608 9    279472.29847  21903436.408
  21050887.5244   21050897.1554     501661.884 9    383685.41748  21050887.497
  22015405.3324   22015415.7414     -38082.001 9    -28763.21947  22015405.848
 00  6 25  4  5  0.0000000  0  8G10G27G18G 7G19G 2G13G 8
                  24270600.2774     133788.96018     94606.42745
                                      9444.406 9      1814.89842
  24286857.1184   24286877.7374    1108839.300 8    837529.29945  24286857.289
  20199166.7084   20199177.3174    -182244.274 9   -139901.53648  20199167.475
  25173867.8444   25173889.0184     526002.035 8    249430.16945  25173867.909
  21910784.4904   21910795.1424     433400.742 9    309564.36147  21910785.157
  21060496.7314   21060506.3524     552158.364 9    423033.28948  21060496.696
  22014510.6724   22014521.1164     -42783.488 9    -32426.72247  22014511.179
 00  6 25  4  5 30.0000000  0  8G10G27G18G 7G19G 2G13G 8
  24278018.5774   24278041.9924     172888.623 8    125073.36045  24278017.271
                                     40250.224 9     25818.93152
  24306603.3184   24306624.1154    1212604.992 8    918385.07145  24306603.412
  20196321.6074   20196332.2114    -197195.255 9   -151551.60648  20196322.362
  25185569.4834   25185590.9444     587487.385 8    297340.23245  25185568.453
  21918101.8144   21918112.4644     471853.504 9    339527.55747  21918102.542
  21070164.2294   21070173.8764     602961.253 9    462619.91648  21070164.180
  22013619.2084   22013629.6644     -47468.467 9    -36077.38047  22013619.753
 00  6 25  4  6  0.0000000  0  8G10G27G18G 7G19G 2G13G 8
  24285413.5884   24285436.7824     211751.816 8    155356.05545  24285413.546
                  22949040.1504      71041.04819     49811.82146
  24326311.2344   24326332.4514    1316169.242 8    999083.85545  24326311.350
  20193540.2834   20193550.8494    -211811.119 9   -162940.54348  20193541.057
  25197262.6974   25197284.0604     648935.679 8    345221.41745  25197261.988
  21925375.9584   21925386.6364     510079.277 9    369313.87447  21925376.674
  21079878.1744   21079887.8044     654008.152 9    502396.68948  21079878.122
  22012719.7514   22012730.1994     -52195.266 9    -39760.61447  22012720.305
 00  6 25  4  6 30.0000000  0  8G10G27G18G 7G19G 2G13G 8
  24292766.4284   24292789.0204     250387.354 8    185461.31545  24292766.147
  22954886.8134   22954898.3734     101829.429 9     73802.71147  22954886.903
  24345982.6264   24346003.8284    1419541.157 8   1079632.78345  24345982.831
  20190824.9234   20190835.4684    -226080.214 9   -174059.27748  20190825.689
  25208951.0464   25208972.7664     710358.429 8    393082.74745  25208950.830
  21932608.8504   21932619.5334     548088.328 9    398931.31847  21932609.543
  21089640.3764   21089649.9584     705308.410 9    542370.88248  21089640.326
  22011814.8584   22011825.2844     -56950.671 9    -43466.14747  22011815.402
 00  6 25  4  7  0.0000000  0  8G10G27G18G 7G19G 2G13G 8
  24300080.1654   24300102.5654     288820.726 8    215409.06845  24300080.154
  22960750.6434   22960762.2034     132644.212 9     97814.19647  22960751.155
  24365622.1714   24365643.4884    1522745.851 8   1160051.34045  24365622.398
  20188180.9134   20188191.4364    -239974.435 9   -184885.90248  20188181.680
  25220640.1034   25220662.0224     771783.328 8    440945.69845  25220639.881
  21939805.5894   21939816.2334     585907.194 9    428400.56547  21939806.296
  21099455.6914   21099465.2524     756887.966 9    582562.70648  21099455.636
  22010910.2444   22010920.6094     -61704.668 9    -47170.56947  22010910.742
 00  6 25  4  7 30.0000000  0  8G10G27G18G 7G19G 2G13G 8
  24307361.6444   24307384.2824     327086.057 8    245225.86345  24307361.906
  22966626.5254   22966638.3254     163523.045 9    121875.59447  22966627.082
  24385236.4014   24385258.0284    1625817.867 8   1240366.50045  24385236.702
  20185615.2594   20185625.7794    -253457.017 9   -195391.76448  20185616.036
  25232336.5874   25232358.3954     833247.019 8    488838.80245  25232336.494
  21946972.7974   21946983.6294     623571.483 9    457749.35847  21946973.504
  21109330.7644   21109340.3524     808781.500 9    622999.19148  21109330.707
  22010013.1454   22010023.6004     -66418.726 9    -50843.87847  22010013.638
 00  6 25  4  8  0.0000000  0  8G10G27G18G 7G19G 2G13G 8
  24314614.0734   24314636.8204     365197.368 8    274922.65345  24314614.659
  22972518.1164   22972530.0544     194483.467 9    146000.56247  22972518.609
  24404828.4384   24404849.6564    1728771.315 8   1320589.28545  24404828.588
  20183131.1594   20183141.7004    -266510.823 9   -205563.51748  20183131.918
  25244043.5044   25244064.8474     894766.238 7    536775.21445  25244043.175
  21954113.6534   21954124.5434     661096.963 9    486989.99847  21954114.310
  21119268.2954   21119277.9454     861003.601 9    663691.69948  21119268.243
  22009127.2384   22009137.7064     -71074.266 9    -54471.59447  22009127.709
 00  6 25  4  8 30.0000000  0  8G10G27G18G 7G19G 2G13G 8
  24321834.7844   24321858.0564     403143.498 8    304490.65745  24321835.595
  22978423.7584   22978435.7364     225517.601 9    170182.96747  22978424.194
  24424395.9014   24424417.0444    1831595.235 8   1400711.15545  24424395.837
  20180727.0234   20180737.5404    -279144.476 9   -215407.88148  20180727.787
  25255758.9894   25255780.4004     956332.155 8    584748.03144  25255758.883
  21961226.2204   21961237.1144     698473.741 9    516114.74747  21961226.904
  21129266.3734   21129276.0614     913543.708 9    704632.00948  21129266.305
  22008251.1454   22008261.6574     -75677.920 9    -58058.86747  22008251.672
 00  6 25  4  9  0.0000000  0  8G10G27G18G 7G19G 2G13G 8
  24329026.8054   24329049.7764     440936.163 8    333939.17145  24329027.722
  22984346.1684   22984358.3474     256640.620 9    194434.62947  22984346.588
  24443940.7804   24443962.0954    1934301.049 8   1480740.95845  24443940.750
  20178405.6004   20178416.0874    -291343.744 9   -224913.76948  20178406.359
  25267486.9604   25267508.0924    1017958.679 8    632768.11544  25267486.754
  21968312.9934   21968323.8084     735714.863 9    545133.78947  21968313.663
  21139327.3184   21139337.0374     966413.943 9    745829.55748  21139327.241
  22007388.0824   22007398.6084     -80213.487 9    -61593.09647  22007388.570
 00  6 25  4  9 30.0000000  0  8G10G27G18G 7G19G 2G13G 8
  24336188.5964   24336211.9584     478570.725 8    363264.44845  24336189.396
  22990285.4664   22990297.6604     287851.225 9    218754.54147  22990285.892
  24463462.1674   24463483.7934    2036884.063 8   1560675.02645  24463462.257
  20176166.4014   20176176.8854    -303110.676 9   -234082.76648  20176167.156
  25279225.9654   25279247.3884    1079643.125 8    680833.39045  25279225.685
  21975373.2954   21975384.0394     772816.860 9    574044.42247  21975373.961
  21149450.1804   21149459.8684    1019609.660 9    787280.73348  21149450.146
  22006537.8714   22006548.3784     -84681.652 9    -65074.79847  22006538.448
 00  6 25  4 10  0.0000000  0  8G10G27G18G 7G19G 2G13G 8
  24343310.2784   24343333.8744     515995.586 8    392426.34945  24343311.359
  22996232.2104   22996244.2874     319101.079 9    243105.04147  22996232.654
  24482950.4454   24482972.3134    2139292.917 8   1640473.35345  24482950.677
  20174000.0804   20174010.5514    -314494.672 9   -242953.37048  20174000.806
  25290966.1584   25290988.0934    1141336.167 8    728905.23845  25290965.990
  21982397.5834   21982408.3014     809729.545 9    602807.54547  21982398.253
  21159625.2064   21159634.8964    1073079.595 9    828945.57748  21159625.143
  22005691.4674   22005701.9684     -89129.704 9    -68540.83047  22005692.073
 00  6 25  4 10 30.0000000  0  8G10G27G18G 7G19G 2G13G 8
  24350399.0284   24350422.8184     553246.644 8    421452.79045  24350400.115
  23002193.8724   23002205.8854     350429.326 9    267516.63547  23002194.346
  24502412.2314   24502434.2684    2241563.078 8   1720163.65845  24502412.584
  20171913.9644   20171924.3914    -325457.276 9   -251495.61748  20171914.699
  25302715.3844   25302737.6364    1203076.111 8    777013.64145  25302715.182
  21989392.9204   21989403.5944     846490.081 9    631452.10147  21989393.594
  21169859.3714   21169869.0164    1126860.078 9    870852.42048  21169859.311
  22004856.5354   22004867.0994     -93517.202 9    -71959.67347  22004857.107
 00  6 25  4 11  0.0000000  0  8G10G27G18G 7G19G 2G13G 8
  24357448.5584   24357471.9724     590289.574 8    450317.08045  24357449.580
  23008164.5794   23008176.5944     381805.537 9    291965.59447  23008165.079
  24521841.1424   24521863.1404    2343660.690 8   1799719.51645  24521841.786
  20169901.9974   20169912.3904    -336030.100 9   -259734.12948  20169902.758
  25314467.3084   25314489.9424    1264831.059 8    825133.74145  25314467.438
  21996353.0424   21996363.7774     883065.853 9    659952.68647  21996353.727
  21180146.2104   21180155.8054    1180917.370 9    912974.95448  21180146.146
  22004027.4894   22004038.0814     -97874.085 9    -75354.66347  22004028.090
 00  6 25  4 11 30.0000000  0  8G10G27G18G 7G19G 2G13G 8
  24364467.4594   24364490.7074     627171.387 8    479055.83645  24364468.355
  23014153.9234   23014165.9314     413279.896 9    316491.03047  23014154.412
  24541246.2874   24541268.4234    2445632.860 8   1879177.56645  24541247.030
  20167973.6924   20167984.0784    -346163.394 9   -267630.14648  20167974.467
  25326231.5324   25326254.3934    1326650.576 8    873304.12745  25326231.767
  22003287.3414   22003298.0754     919505.417 9    688347.14547  22003288.004
  21190494.6564   21190504.2814    1235298.718 9    955349.99548  21190494.594
  22003214.0924   22003224.6854    -102148.647 9    -78685.50847  22003214.749
 00  6 25  4 12  0.0000000  0  8G10G27G18G 7G19G 2G13G 8
  24371456.5714   24371479.6504     663897.220 8    507673.05645  24371457.503
  23020163.5724   23020175.5454     444860.617 9    341099.36047  23020164.120
  24560628.6604   24560651.0714    2547484.993 8   1958542.11245  24560629.336
  20166130.3294   20166140.7534    -355849.919 9   -275178.02548  20166131.120
  25338009.6614   25338032.4814    1388542.047 8    921530.57645  25338009.839
  22010196.9074   22010207.5934     955815.260 9    716640.50847  22010197.575
  21200905.8184   21200915.4404    1290009.456 9    997981.71148  21200905.755
  22002418.1134   22002428.7114    -106331.549 9    -81944.92247  22002418.731
 00  6 25  4 12 30.0000000  0  9G10G27G18G 7G19G 2G 4G13G 8
  24378415.5044   24378438.4694     700464.666 8    536166.81845  24378416.417
  23026193.5084   23026205.6024     476548.402 9    365791.10547  23026193.983
  24579987.8764   24580010.6014    2649214.135 8   2037810.75645  24579988.616
  20164371.9964   20164382.4294    -365089.872 9   -282377.93148  20164372.760
  25349801.0674   25349824.2084    1450504.807 8    969812.48045  25349801.338
  22017081.5324   22017092.2214     991994.088 9    744831.78347  22017082.187
                                    -62352.470 9    -37429.51042
  21211379.2084   21211388.8384    1345047.249 9   1040868.26748  21211379.186
  22001639.8614   22001650.4694    -110421.394 9    -85131.82247  22001640.432
 00  6 25  4 13  0.0000000  0 10G26G10G27G18G 7G19G 2G 4G13G 8
  23322477.2455   23322489.0344    -260087.19919   -179534.26445  23322476.841
  24385347.0254   24385369.7404     736888.390 8    564548.61045  24385347.782
  23032247.3374   23032259.4894     508361.459 9    390580.46547  23032247.758
  24599326.0104   24599349.2344    2750834.883 8   2116994.92645  24599326.990
  20162701.9424   20162712.3604    -373865.911 9   -289216.34248  20162702.689
  25361609.3424   25361632.9164    1512555.939 8   1018163.31645  25361609.458
  22023944.3414   22023954.9974    1028058.217 9    772933.68247  22023945.051
                                   -133748.729 8    -93062.55452
  21221917.6724   21221927.3334    1400427.365 9   1084021.57448  21221917.652
  22000883.0554   22000893.6654    -114398.678 9    -88231.01147  22000883.626
 00  6 25  4 13 30.0000000  0 10G26G10G27G18G 7G19G 2G 4G13G 8
  23304835.3284   23304845.9844    -352800.731 9   -251778.50645  23304834.239
  24392250.4174   24392273.6354     773165.314 8    592815.95345  24392251.094
  23038325.0794   23038337.2114     540299.831 9    415467.48547  23038325.500
  24618643.3864   24618666.4674    2852344.334 8   2196092.38345  24618643.850
  20161119.9474   20161130.3714    -382179.083 9   -295694.08048  20161120.703
  25373434.5544   25373458.0934    1574694.640 8   1066582.41345  25373434.668
  22030784.9654   22030795.5564    1064006.022 9    800944.93647  22030785.652
                  24024383.4274    -205407.448 9   -148900.16044
  21232520.7024   21232530.4274    1456146.742 9   1127439.23748  21232520.677
  22000147.8354   22000158.4684    -118262.326 9    -91241.65747  22000148.369
 00  6 25  4 14  0.0000000  0 10G26G10G27G18G 7G19G 2G 4G13G 8
  23287233.2444   23287244.8314    -445295.487 9   -323852.29746  23287233.228
  24399125.8774   24399149.4754     809296.770 8    620969.98445  24399126.862
  23044427.4944   23044439.6284     572367.860 9    440455.52047  23044427.884
  24637939.4884   24637963.1494    2953744.074 8   2275104.35145  24637940.356
  20159626.7314   20159637.1524    -390025.872 9   -301808.39948  20159627.500
  25385277.0874   25385300.5554    1636924.199 8   1115072.36345  25385277.327
  22037603.9744   22037614.6284    1099840.123 9    828867.59847  22037604.632
  24010677.5144   24010696.6284    -277322.674 9   -204937.56845  24010677.489
  21243188.5974   21243198.3544    1512206.805 9   1171122.37148  21243188.529
  21999435.3184   21999445.9544    -122006.737 9    -94159.39747  21999435.830
 00  6 25  4 14 30.0000000  0 10G26G10G27G18G 7G19G 2G 4G13G 8
  23269701.1414   23269712.5914    -537427.665 9   -395643.54146  23269701.125
  24406000.2274   24406023.9134     845421.338 8    649118.66445  24406001.453
  23050581.6244   23050593.6584     604707.749 9    465655.39347  23050581.903
  24657241.1164   24657265.0554    3055172.407 8   2354138.61845  24657241.925
  20158249.0754   20158259.4834    -397265.226 9   -307449.38948  20158249.861
  25397163.5774   25397187.2014    1699385.765 8   1163742.99145  25397164.097
  22044427.9804   22044438.6924    1135700.656 9    856810.85047  22044428.683
  23996971.1534   23996990.8644    -349350.697 9   -261062.89145  23996971.146
  21253947.6784   21253957.5064    1568746.359 9   1215179.13348  21253947.597
  21998772.7074   21998783.3194    -125488.902 9    -96872.78347  21998773.210
 00  6 25  4 15  0.0000000  0 10G26G10G27G18G 7G19G 2G 4G13G 8
  23252223.9014   23252235.2764    -629271.196 9   -467209.87846  23252223.928
  24412858.3994   24412882.0384     881459.767 8    677200.20945  24412859.587
  23056772.9684   23056785.0014     637243.357 9    491007.78747  23056773.267
  24676533.4694   24676557.4964    3156550.700 8   2433133.86245  24676533.936
  20156972.3884   20156982.7584    -403974.123 9   -312677.04148  20156973.210
  25409079.4604   25409102.6004    1762002.061 8   1212534.16445  25409079.981
  22051242.2234   22051253.0134    1171509.809 9    884714.06147  22051242.802
  23983228.6964   23983247.6804    -421566.307 9   -317334.39145  23983228.970
  21264782.9774   21264792.8054    1625686.275 9   1259547.86048  21264782.869
  21998145.6904   21998156.3314    -128783.886 9    -99440.32147  21998146.169
 00  6 25  4 15 30.0000000  0 10G26G10G27G18G 7G19G 2G 4G13G 8
  23234798.1844   23234809.6814    -720843.149 9   -538564.59746  23234798.318
  24419696.2854   24419719.6424     917389.703 8    705197.21645  24419697.266
  23062997.9784   23063009.9804     669955.692 9    516497.87947  23062998.311
  24695811.7744   24695836.0884    3257856.515 8   2512072.65245  24695812.138
  20155792.7754   20155803.1134    -410172.828 9   -317507.14948  20155793.601
  25421020.6534   25421044.7904    1824753.117 8   1261430.44344  25421021.413
  22058042.7554   22058053.6204    1207246.590 9    912560.87247  22058043.395
  23969446.9984   23969465.9964    -493986.941 9   -373765.63545  23969447.560
  21275690.2664   21275700.0844    1683004.268 9   1304211.19948  21275690.178
  21997550.8634   21997561.5094    -131909.631 9   -101875.97347  21997551.359
 00  6 25  4 16  0.0000000  0 10G26G10G27G18G 7G19G 2G 4G13G 8
  23217425.6604   23217437.0884    -812136.018 9   -609701.85046  23217425.653
  24426513.8754   24426537.2404     953214.167 8    733112.01545  24426514.856
  23069257.6454   23069269.6724     702850.441 9    542130.11647  23069257.973
  24715077.1284   24715101.3894    3359092.424 8   2590957.02445  24715077.227
  20154711.1444   20154721.4544    -415856.599 9   -321936.00848  20154711.943
  25432988.6284   25433013.4924    1887643.320 8   1310435.09245  25432989.405
  22064830.2664   22064841.1214    1242915.113 9    940354.50747  22064830.930
  23955628.1944   23955647.0994    -566605.421 9   -430351.06745  23955628.661
  21286670.0354   21286679.8754    1740703.110 9   1349171.30248  21286669.959
  21996989.5614   21997000.2714    -134859.391 9   -104174.49747  21996990.089
 00  6 25  4 16 30.0000000  0 10G26G10G27G18G 7G19G 2G 4G13G 8
  23200110.4174   23200121.6784    -903128.687 9   -680605.17646  23200110.454
  24433314.4584   24433337.6574     988948.851 8    760956.88745  24433315.224
  23075555.7154   23075567.6864     735946.797 9    567919.45447  23075556.002
  24734331.9074   24734356.3224    3460273.980 8   2669799.09545  24734332.122
  20153730.9724   20153741.2864    -421007.321 9   -325949.50448  20153731.759
  25444986.8114   25445011.7414    1950690.622 8   1359562.09945  25444987.536
  22071608.1144   22071618.9714    1278532.869 9    968108.58147  22071608.811
  23941775.3944   23941794.5244    -639400.845 9   -487074.33445  23941775.864
  21297725.3614   21297735.2164    1798799.033 9   1394440.82048  21297725.279
  21996465.6244   21996476.3664    -137612.826 9   -106320.04247  21996466.205
 00  6 25  4 17  0.0000000  0 10G26G10G27G18G 7G19G 2G 4G13G 8
  23182848.2694   23182859.5554    -993841.173 9   -751290.17646  23182848.380
  24440092.8354   24440116.3714    1024568.307 8    788711.96845  24440093.661
  23081887.9114   23081899.8414     769222.685 9    593848.69147  23081888.214
  24753571.7184   24753596.3414    3561376.382 8   2748579.45145  24753571.947
  20152847.8144   20152858.1064    -425648.169 9   -329565.70648  20152848.597
  25457010.7564   25457035.5414    2013872.194 8   1408793.81045  25457011.315
  22078371.7914   22078382.5874    1314076.137 9    995804.61147  22078372.451
  23927885.3304   23927904.3014    -712393.705 9   -543951.48845  23927885.656
  21308851.3994   21308861.2794    1857266.755 9   1440000.04248  21308851.315
  21995974.9834   21995985.7044    -140191.141 9   -108329.12547  21995975.573
 00  6 25  4 17 30.0000000  0 10G26G10G27G18G 7G19G 2G 4G13G 8
  23165638.2734   23165649.5504   -1084280.422 9   -821762.26746  23165638.235
  24446847.0204   24446870.9294    1060060.737 8    816368.05645  24446847.979
  23088252.5754   23088264.5584     802669.125 9    619910.83847  23088252.912
  24772794.0414   24772818.7204    3662387.590 8   2827288.73445  24772794.408
  20152059.7994   20152070.0454    -429789.191 9   -332792.43648  20152060.603
  25469058.1774   25469083.0054    2077178.247 8   1458122.49845  25469058.487
  22085119.3104   22085130.0374    1349534.333 9   1023434.35347  22085120.018
  23913956.1244   23913974.7554    -785591.181 9   -600988.09045  23913956.308
  21320045.9194   21320055.7804    1916094.241 9   1485839.60748  21320045.788
  21995516.2214   21995526.9024    -142601.967 9   -110207.70147  21995516.867
 00  6 25  4 18  0.0000000  0 10G26G10G27G18G 7G19G 2G 4G13G 8
  23148484.0184   23148495.4684   -1174425.778 9   -892005.34146  23148484.056
  24453580.0994   24453603.8504    1095441.596 8    843937.22645  24453581.021
  23094653.2444   23094665.3594     836304.837 9    646120.46047  23094653.589
  24792001.7724   24792026.6774    3763322.873 8   2905938.88545  24792002.437
  20151370.2274   20151380.4544    -433412.797 9   -335615.99048  20151371.032
  25481132.0094   25481157.3674    2140626.388 8   1507561.96245  25481132.443
  22091853.8784   22091864.5804    1384924.396 9   1051011.00347  22091854.568
  23899991.5914   23900010.2514    -858973.012 8   -658168.31445  23899991.659
  21331311.8604   21331321.7124    1975296.924 9   1531971.52948  21331311.727
  21995093.1044   21995103.8174    -144825.516 9   -111940.34747  21995093.727
 00  6 25  4 18 30.0000000  0 10G26G10G27G18G 7G19G 2G 4G13G 8
  23131372.3344   23131383.8564   -1264347.631 9   -962074.25546  23131372.403
  24460277.6014   24460301.2714    1130635.586 8    871360.77545  24460278.531
  23101076.2574   23101088.3514     870057.643 9    672421.31947  23101076.602
  24811181.3654   24811206.0504    3864107.191 8   2984471.47145  24811181.804
  20150765.1264   20150775.3654    -436592.340 9   -338093.52248  20150765.912
  25493219.6004   25493244.5184    2204143.067 8   1557054.82545  25493219.785
  22098561.4744   22098572.1314    1420172.532 9   1078477.05047  22098562.189
  23885978.6914   23885997.2734    -932609.654 9   -715547.08145  23885978.839
  21342634.8914   21342644.7414    2034799.658 9   1578337.25448  21342634.758
  21994692.0914   21994702.7974    -146933.046 9   -113582.60147  21994692.719
 00  6 25  4 19  0.0000000  0 10G26G10G27G18G 7G19G 2G 4G13G 8
  23114308.1574   23114319.5264   -1354020.548 9  -1031949.20046  23114308.135
  24466943.0894   24466967.0994    1165663.236 8    898654.67145  24466944.207
  23107525.9324   23107538.0004     903950.750 9    698831.52347  23107526.287
  24830335.6044   24830360.7724    3964761.640 8   3062902.87045  24830336.155
  20150248.7834   20150259.0494    -439305.580 9   -340207.70648  20150249.547
  25505324.1614   25505349.2104    2267750.303 8   1606618.20945  25505324.514
  22105246.1564   22105256.8064    1455300.532 9   1105849.49547  22105246.859
  23871922.2034   23871940.7144   -1006476.215 9   -773105.00345  23871922.202
  21354018.8904   21354028.6894    2094622.531 9   1624952.44848  21354018.774
  21994317.8704   21994328.4794    -148899.978 9   -115115.28647  21994318.445
 00  6 25  4 19 30.0000000  0 10G26G10G27G18G 7G19G 2G 4G13G 8
  23097329.5114   23097340.8574   -1443244.026 9  -1101473.91546  23097329.423
  24473614.0104   24473638.3994    1200719.522 8    925970.93845  24473615.214
  23114040.0734   23114052.2284     938182.770 9    725505.79147  23114040.401
  24849502.6054   24849527.4994    4065480.715 8   3141384.70945  24849502.956
  20149858.7234   20149868.9904    -441355.248 9   -341804.82948  20149859.481
  25517483.7624   25517509.2804    2331645.891 8   1656406.25845  25517483.986
  22111945.3694   22111956.0154    1490505.158 9   1133281.64647  22111946.130
  23857859.9884   23857878.3044   -1080372.344 9   -830686.00545  23857860.010
  21365500.9714   21365510.7434    2154960.928 9   1671969.33648  21365500.908
  21994008.3054   21994018.8174    -150526.848 9   -116382.98347  21994008.895
 00  6 25  4 20  0.0000000  0 10G26G10G27G18G 7G19G 2G 4G13G 8
  23080425.6144   23080437.0174   -1532074.704 9  -1170692.55546  23080425.580
  24480279.0454   24480303.4664    1235743.295 8    953261.81645  24480280.102
  23120607.5974   23120619.7964     972695.029 9    752398.43047  23120607.906
  24868670.1274   24868694.7094    4166202.982 8   3219869.08145  24868670.162
  20149583.5744   20149593.8244    -442801.015 9   -342931.37848  20149584.334
  25529686.7354   25529712.4214    2395770.098 7   1706372.46844  25529686.893
  22118647.7494   22118658.3854    1525726.471 9   1160726.79647  22118648.433
  23843781.3354   23843799.4454   -1154354.988 9   -888334.40245  23843781.308
  21377069.3934   21377079.1674    2215753.251 9   1719339.93148  21377069.336
  21993752.5524   21993763.0444    -151871.068 9   -117430.44047  21993753.143
 00  6 25  4 20 30.0000000  0 10G26G10G27G18G 7G19G 2G 4G13G 8
  23063571.6724   23063583.1384   -1620642.538 9  -1239706.38646  23063571.669
  24486911.8034   24486936.6374    1270599.553 8    980422.18645  24486913.042
  23127203.3104   23127215.6174    1007355.669 9    779406.68847  23127203.645
  24887812.4744   24887837.2434    4266793.357 8   3298250.69045  24887812.473
  20149398.0424   20149408.2764    -443776.032 9   -343691.09948  20149398.810
  25541907.8954   25541933.3674    2459990.188 8   1756413.39745  25541907.958
  22125327.9344   22125338.5284    1560830.959 9   1188080.92447  22125328.612
  23829661.3094   23829679.2604   -1228554.265 9   -946151.62645  23829661.256
  21388698.4724   21388708.2684    2276864.329 9   1766958.90848  21388698.398
  21993525.6594   21993536.1244    -153063.443 9   -118359.57747  21993526.267
 00  6 25  4 21  0.0000000  0 10G26G10G27G18G 7G19G 2G 4G13G 8
  23046760.5694   23046772.0344   -1708985.323 9  -1308544.86346  23046760.582
  24493504.9584   24493529.7014    1305245.225 8   1007418.45345  24493506.103
  23133819.6694   23133832.0244    1042124.909 9    806499.55847  23133819.995
  24906921.4154   24906946.5884    4367209.155 8   3376496.31645  24906921.469
  20149294.2344   20149304.4904    -444321.355 9   -344115.99448  20149295.023
  25554139.2254   25554165.4334    2524265.066 8   1806497.03145  25554139.411
  22131978.0604   22131988.5854    1595777.322 9   1215311.82547  22131978.746
  23815492.9774   23815510.8064   -1303008.040 9  -1004167.13745  23815492.913
  21400380.0154   21400389.8594    2338251.334 9   1814792.88748  21400379.921
  21993320.3114   21993330.7444    -154142.601 9   -119200.49247  21993320.897
 00  6 25  4 21 30.0000000  0 10G26G10G27G18G 7G19G 2G 4G13G 8
  23030004.0904   23030015.5314   -1797040.878 9  -1377159.52946  23030004.124
  24500069.0244   24500094.0124    1339737.683 8   1034295.33145  24500069.982
  23140468.1674   23140480.5544    1077063.040 9    833724.02947  23140468.530
  24926007.8044   24926033.2624    4467507.525 8   3454650.45545  24926008.084
  20149283.4314   20149293.7154    -444378.016 9   -344160.11148  20149284.182
  25566392.7334   25566418.8324    2588653.947 8   1856669.44445  25566392.925
  22138609.2494   22138619.7754    1630624.337 9   1242465.31047  22138609.912
  23801287.9924   23801305.7324   -1377654.484 9  -1062332.79445  23801287.897
  21412124.9344   21412134.8024    2399971.266 9   1862886.29848  21412124.851
  21993148.1304   21993158.5584    -155047.364 9   -119905.51647  21993148.708
 00  6 25  4 22  0.0000000  0  9G26G10G27G18G 7G 2G 4G13G 8
  23013310.7274   23013322.1824   -1884765.048 9  -1445515.97746  23013310.695
  24506611.5564   24506636.5534    1374116.435 8   1061083.60845  24506612.196
  23147156.8264   23147169.1664    1112212.233 9    861112.97147  23147157.146
  24945079.7394   24945105.3174    4567728.147 8   3532744.08345  24945079.723
  20149373.4394   20149383.7174    -443904.849 9   -343791.37848  20149374.199
  22145229.3564   22145239.9194    1665412.814 9   1269573.17447  22145230.091
  23787054.5854   23787072.3824   -1452449.311 9  -1120614.08445  23787054.487
  21423940.6754   21423950.5644    2462063.340 9   1911269.68048  21423940.561
  21993017.4714   21993027.8574    -155734.160 9   -120440.69747  21993018.021
 00  6 25  4 22 30.0000000  0  9G26G10G27G18G 7G 2G 4G13G 8
  22996671.2364   22996682.7664   -1972205.444 9  -1513651.27746  22996671.236
  24513121.8194   24513147.7224    1408328.492 8   1087741.96145  24513122.856
  23153876.2554   23153888.5734    1147522.754 9    888627.62047  23153876.564
  24964126.3034   24964152.1844    4667818.072 8   3610735.89945  24964126.560
  20149554.5344   20149564.7844    -442953.008 9   -343049.65448  20149555.257
  22151828.5084   22151839.1534    1700091.591 9   1296595.56047  22151829.225
  23772784.0654   23772801.5044   -1527440.548 9  -1179048.43645  23772784.046
  21435817.1234   21435827.0754    2524474.444 9   1959901.66048  21435817.028
  21992918.9694   21992929.3534    -156251.778 9   -120844.05747  21992919.539
 00  6 25  4 23  0.0000000  0  9G26G10G27G18G 7G 2G 4G13G 8
  22980085.5384   22980097.0004   -2059363.766 9  -1581566.80646  22980085.592
  24519599.7924   24519625.4654    1442367.294 8   1114265.33545  24519600.823
  23160625.7124   23160637.9814    1182991.033 9    916265.19747  23160626.023
  24983147.1254   24983172.9934    4767770.601 8   3688620.71645  24983147.256
  20149825.8064   20149836.0424    -441527.345 9   -341938.71848  20149826.529
  22158405.7854   22158416.5114    1734655.564 9   1323528.49647  22158406.463
  23758475.7614   23758492.8764   -1602629.857 9  -1237637.11145  23758475.639
  21447753.0304   21447762.9934    2587197.853 9   2008776.99848  21447752.960
  21992852.2354   21992862.6394    -156602.571 9   -121117.42047  21992852.862
 00  6 25  4 23 30.0000000  0  9G26G10G27G18G 7G 2G 4G13G 8
  22963560.2384   22963571.6064   -2146204.832 9  -1649235.12046  22963560.314
  24526050.5484   24526076.1384    1476263.195 8   1140677.36045  24526051.503
  23167411.4844   23167423.7914    1218650.351 9    944051.62746  23167411.845
  25002147.3444   25002173.5034    4867616.139 8   3766422.15745  25002147.819
  20150193.3714   20150203.6014    -439595.691 9   -340433.50348  20150194.116
  22164967.4024   22164978.1604    1769136.782 9   1350396.93147  22164968.026
  23744136.2284   23744153.3514   -1677982.202 9  -1296352.82945  23744136.174
  21459754.1814   21459764.1624    2650263.993 9   2057919.38848  21459754.093
  21992823.8054   21992834.2124    -156752.060 9   -121233.93647  21992824.395
 00  6 25  4 24  0.0000000  0  9G26G10G27G18G 7G 2G 4G13G 8
  22947100.3334   22947111.5904   -2232702.658 9  -1716635.97146  22947100.396
  24532477.8494   24532503.3894    1510037.310 9   1166994.52245  24532478.986
  23174238.1994   23174250.4314    1254524.569 9    972005.53246  23174238.580
  25021130.9244   25021157.3414    4967375.731 8   3844156.69044  25021131.710
  20150661.4584   20150671.6994    -437135.769 9   -338516.64248  20150662.230
  22171517.4384   22171528.1834    1803557.495 9   1377218.23147  22171518.042
  23729770.7824   23729788.0724   -1753471.590 9  -1355175.32445  23729770.789
  21471824.4754   21471834.4654    2713693.464 9   2107344.90448  21471824.415
  21992838.4254   21992848.8354    -156675.232 9   -121174.08347  21992839.013
 00  6 25  4 24 30.0000000  0  9G26G10G27G18G 7G 2G 4G13G 8
  22930708.8804   22930720.0844   -2318840.449 9  -1783756.27646  22930708.979
  24538884.3634   24538909.8224    1543701.786 8   1193226.20845  24538885.553
  23181108.5824   23181120.7704    1290628.627 9   1000138.51546  23181108.957
  25040100.6304   25040126.7574    5067061.261 8   3921833.45344  25040101.257
  20151232.6924   20151242.9144    -434133.812 9   -336177.42148  20151233.428
  22178058.5794   22178069.3804    1837931.315 9   1404002.98447  22178059.246
  23715382.4934   23715399.7844   -1829081.442 9  -1414091.69446  23715382.434
  21483966.1104   21483976.1364    2777498.042 9   2157062.71248  21483966.039
  21992899.1534   21992909.5304    -156356.340 9   -120925.62147  21992899.702
 00  6 25  4 25  0.0000000  0  9G26G10G27G18G 7G 2G 4G13G 8
  22914382.1034   22914393.2544   -2404638.367 9  -1850611.77546  22914382.122
  24545265.2954   24545290.8304    1577231.525 8   1219352.87645  24545266.392
  23188018.4894   23188030.6824    1326940.296 9   1028433.28246  23188018.868
  25059052.1564   25059077.9204    5166648.134 8   3999433.36144  25059052.152
  20151902.5684   20151912.7794    -430613.419 9   -333434.22148  20151903.309
  22184586.3404   22184597.2094    1872234.809 9   1430732.94447  22184587.026
  23700967.4524   23700984.7174   -1904831.758 9  -1473117.51046  23700967.464
  21496174.2384   21496184.3154    2841652.152 9   2207052.88248  21496174.173
  21993001.8924   21993012.3334    -155816.312 9   -120504.83847  21993002.417
 00  6 25  4 25 30.0000000  0  9G26G10G27G18G 7G 2G 4G13G 8
  22898124.5584   22898135.6474   -2490072.727 9  -1917183.97246  22898124.513
  24551624.1534   24551649.7314    1610645.957 8   1245389.71545  24551625.272
  23194972.0444   23194984.2704    1363481.256 9   1056906.70446  23194972.476
  25077987.9514   25078013.3524    5266155.156 8   4076971.07244  25077987.729
  20152674.9644   20152685.1654    -426554.285 9   -330271.22848  20152675.696
  22191104.6084   22191115.4694    1906488.335 9   1457423.96447  22191105.301
  23686530.1284   23686547.1704   -1980698.836 9  -1532234.34446  23686530.202
  21508452.4784   21508462.5964    2906174.617 9   2257330.08148  21508452.444
  21993151.1684   21993161.6514    -155032.010 9   -119893.72047  21993151.686
 00  6 25  4 26  0.0000000  0  9G26G10G27G18G 7G 2G 4G13G 8
  22881930.5504   22881941.7164   -2575172.018 9  -1983495.07646  22881930.568
  24557954.6514   24557980.1854    1643910.812 8   1271309.98745  24557955.639
  23201963.4354   23201975.6374    1400221.045 9   1085535.07246  23201963.814
  25096901.8054   25096927.2904    5365548.659 8   4154420.35144  25096901.989
  20153543.8624   20153554.0504    -421988.168 9   -326713.17748  20153544.584
  22197607.2764   22197618.1884    1940660.064 9   1484051.24247  22197607.979
  23672065.0014   23672082.1614   -2056711.384 9  -1591464.49946  23672064.979
  21520794.4044   21520804.5494    2971031.607 9   2307867.95148  21520794.326
  21993341.3164   21993351.8474    -154032.943 9   -119115.25847  21993341.858
 00  6 25  4 26 30.0000000  0  9G26G10G27G18G 7G 2G 4G13G 8
  22865802.2644   22865813.5094   -2659926.410 9  -2049537.41146  22865802.250
  24564257.2184   24564283.3114    1677031.724 8   1297118.06945  24564258.394
  23208994.1784   23209006.3334    1437167.579 9   1114324.54346  23208994.559
  25115795.4164   25115821.8864    5464833.689 8   4231785.15544  25115795.535
  20154510.4534   20154520.6004    -416908.491 9   -322754.95648  20154511.172
  22204095.7844   22204106.6964    1974756.769 9   1510620.06247  22204096.462
  23657574.2724   23657591.0724   -2132859.357 9  -1650800.21645  23657574.109
  21533200.8654   21533211.0214    3036227.983 9   2358670.27548  21533200.813
  21993573.9554   21993584.5204    -152810.297 9   -118162.57347  21993574.505
 00  6 25  4 27  0.0000000  0  9G26G10G27G18G 7G 2G 4G13G 8
  22849744.5614   22849755.8094   -2744310.089 9  -2115290.91046  22849744.441
  24570536.8704   24570562.9104    1710029.498 8   1322830.21345  24570537.784
  23216068.7604   23216080.9414    1474344.688 9   1143293.67446  23216069.174
  25134672.2564   25134698.9144    5564031.551 8   4309082.06444  25134672.159
  20155579.0434   20155589.1844    -411293.066 9   -318379.27248  20155579.793
  22210574.2104   22210585.1214    2008801.038 9   1537148.01547  22210574.916
  23643062.6194   23643079.1524   -2209116.933 9  -1710221.32845  23643062.500
  21545675.8594   21545686.0804    3101784.368 9   2409753.12648  21545675.798
  21993854.0324   21993864.5684    -151338.817 9   -117015.99147  21993854.605
 00  6 25  4 27 30.0000000  0  9G26G10G27G18G 7G 2G 4G13G 8
  22833755.1504   22833766.4704   -2828334.644 9  -2180764.55246  22833755.084
  24576790.0824   24576815.8544    1742887.663 8   1348433.59545  24576790.900
  23223184.6644   23223196.7384    1511738.712 9   1172431.84046  23223185.119
  25153529.2954   25153555.5604    5663125.828 8   4386298.21844  25153529.024
  20156746.7054   20156756.8404    -405156.729 9   -313597.68248  20156747.472
  22217039.8934   22217050.7034    2042778.085 9   1563623.59047  22217040.516
  23628528.0404   23628544.3904   -2285495.536 9  -1769736.74846  23628527.958
  21558216.2574   21558226.4124    3167684.002 9   2461103.44548  21558216.173
  21994179.0074   21994189.6304    -149630.966 9   -115685.22747  21994179.595
 00  6 25  4 28  0.0000000  0  9G26G10G27G18G 7G 2G 4G13G 8
  22817841.5474   22817853.0074   -2911960.708 9  -2245927.70246  22817841.551
  24583022.9274   24583048.7084    1775641.130 8   1373955.39045  24583023.994
  23230348.8154   23230361.0344    1549387.033 9   1201768.14446  23230349.334
  25172372.6204   25172399.7384    5762151.283 8   4463460.81744  25172373.267
  20158020.3434   20158030.4634    -398463.546 9   -308382.19248  20158021.104
  22223499.6324   22223510.3894    2076723.963 9   1590074.86647  22223500.293
  23613977.8544   23613994.2084   -2361955.729 9  -1829315.71946  23613977.815
  21570828.4064   21570838.6104    3233961.176 9   2512747.94948  21570828.294
  21994556.3354   21994566.9934    -147648.263 9   -114140.29047  21994556.909
 00  6 25  4 28 30.0000000  0  9G26G10G27G18G 7G 2G 4G13G 8
  22802002.1824   22802013.7704   -2995196.920 9  -2310787.04646  22802002.127
  24589232.7894   24589259.2334    1808276.516 8   1399385.18744  24589234.418
  23237559.4924   23237571.7034    1587279.027 9   1231294.33946  23237560.038
  25191201.1334   25191228.1784    5861094.232 8   4540559.16244  25191201.681
  20159397.6794   20159407.8114    -391225.529 9   -302742.15448  20159398.451
  22229951.2054   22229961.9014    2110626.877 9   1616492.67147  22229951.883
  23599410.5284   23599426.9784   -2438506.107 9  -1888964.99546  23599410.520
  21583509.7774   21583520.0084    3300602.075 9   2564675.86848  21583509.651
  21994984.1694   21994994.8364    -145400.135 9   -112388.52347  21994984.812
 00  6 25  4 29  0.0000000  0  9G26G10G27G18G 7G 2G 4G13G 8
  22786237.8864   22786249.4484   -3078038.528 9  -2375338.93346  22786237.805
  24595421.2934   24595447.0194    1840793.949 8   1424723.11245  24595422.638
  23244816.9684   23244829.3154    1625417.505 9   1261012.58346  23244817.381
  25210013.8824   25210041.0914    5959954.876 8   4617593.42044  25210014.419
  20160878.9044   20160889.0474    -383441.498 9   -296676.65148  20160879.650
  22236394.8944   22236405.5724    2144488.490 9   1642878.29847  22236395.589
  23584826.8954   23584843.5564   -2515141.796 9  -1948680.72446  23584826.955
  21596260.2904   21596270.5794    3367606.229 9   2616886.84348  21596260.171
  21995463.2074   21995473.9124    -142882.552 9   -110426.80747  21995463.789
 00  6 25  4 29 30.0000000  0  9G26G10G27G18G 7G 2G 4G13G 8
  22770543.3614   22770554.8954   -3160513.767 9  -2439605.31646  22770543.165
  24601581.0994   24601607.0804    1873160.752 8   1449943.59645  24601582.170
  23252115.7554   23252128.0844    1663772.325 9   1290899.41846  23252116.242
  25228804.8434   25228831.8934    6058700.476 8   4694538.02444  25228805.196
  20162458.0214   20162468.1754    -375142.965 9   -290210.23948  20162458.798
  22242824.7924   22242835.5124    2178277.590 9   1669207.41547  22242825.443
  23570221.6464   23570238.3494   -2591890.804 9  -2008484.75546  23570221.768
  21609073.6004   21609083.9004    3434940.441 9   2669355.01548  21609073.460
  21995988.0244   21995998.7594    -140124.660 9   -108277.82047  21995988.597
 00  6 25  4 30  0.0000000  0  9G26G10G27G18G 7G 2G 4G13G 8
  22754910.8034   22754922.3014   -3242663.095 9  -2503617.75246  22754910.717
  24607703.4204   24607729.2464    1905331.852 8   1475011.56145  24607704.405
  23259447.5804   23259459.9264    1702301.169 9   1320921.85746  23259448.082
  25247565.2934   25247592.3474    6157286.192 8   4771358.04144  25247565.605
  20164126.7064   20164136.8324    -366373.899 9   -283377.18348  20164127.425
  22249232.6974   22249243.4224    2211950.771 9   1695446.21447  22249233.331
  23555587.2964   23555603.9054   -2668793.321 9  -2068408.43846  23555587.356
  21621941.0414   21621951.3734    3502559.176 9   2722044.88848  21621940.898
  21996550.7554   21996561.4994    -137167.631 9   -105973.66747  21996551.330
 00  6 25  4 30 30.0000000  0  9G26G10G27G18G 7G 2G 4G13G 8
  22739358.6504   22739369.9984   -3324389.856 9  -2567300.91346  22739358.525
  24613806.1764   24613832.1514    1937399.096 8   1499998.64545  24613807.001
  23266830.5384   23266842.9024    1741098.607 9   1351153.56546  23266831.046
  25266312.5864   25266339.8254    6255803.703 8   4848124.95444  25266312.934
  20165902.6564   20165912.7514    -357041.183 9   -276104.91748  20165903.389
  22255636.1944   22255646.9484    2245601.428 9   1721667.45647  22255636.782
  23540942.1374   23540958.5164   -2745752.391 9  -2128376.21146  23540942.341
  21634880.0344   21634890.3374    3570553.751 9   2775027.62348  21634879.894
  21997169.5664   21997180.3594    -133915.554 9   -103439.61447  21997170.108
 00  6 25  4 31  0.0000000  0  8G26G10G27G 7G 2G 4G13G 8
  22723887.0414   22723898.4094   -3405693.733 9  -2630654.55846  22723886.781
  24619888.1054   24619914.4194    1969358.384 8   1524901.58345  24619889.054
  23274264.2924   23274276.7404    1780163.042 9   1381593.33346  23274264.789
  20167785.2734   20167795.3654    -347147.867 9   -268395.82248  20167786.036
  22262034.9644   22262045.7594    2279227.209 9   1747869.31547  22262035.515
  23526286.5014   23526302.6184   -2822767.646 9  -2188387.76346  23526286.566
  21647889.7084   21647899.9484    3638919.674 9   2828299.72448  21647889.583
  21997844.4794   21997855.2974    -130368.959 9   -100676.05347  21997845.021
 00  6 25  4 31 30.0000000  0  8G26G10G27G 7G 2G 4G13G 8
  22708490.3694   22708501.8384   -3486603.405 9  -2693701.03246  22708490.254
  24625943.2144   24625969.8074    2001176.532 8   1549694.53345  24625944.083
  23281742.9654   23281755.4984    1819463.806 9   1412217.25246  23281743.446
  20169768.4404   20169778.5164    -336726.156 9   -260274.98748  20169769.195
  22268422.9424   22268433.7734    2312796.347 9   1774027.03847  22268423.476
  23511614.6394   23511630.7324   -2899867.379 9  -2248465.13346  23511614.693
  21660963.5574   21660973.7544    3707622.939 9   2881834.69148  21660963.426
  21998569.8474   21998580.6434    -126557.417 9    -97706.03847  21998570.401
 00  6 25  4 32  0.0000000  0  8G26G10G27G 7G 2G 4G13G 8
  22693175.2024   22693186.7324   -3567084.833 9  -2756413.79746  22693175.145
  24631976.9964   24632003.7194    2032882.800 8   1574400.33545  24631977.924
  23289272.8324   23289285.3174    1859032.929 9   1443050.28046  23289273.299
  20171857.9334   20171867.9824    -325745.580 9   -251718.68548  20171858.671
  22274806.0624   22274816.9044    2346339.685 9   1800164.65647  22274806.641
  23496933.1134   23496949.3264   -2977017.419 9  -2308581.69546  23496933.167
  21674107.0784   21674117.2844    3776692.507 9   2935655.08848  21674106.963
  21999351.9264   21999362.7444    -122447.577 9    -94503.59147  21999352.504
 00  6 25  4 32 30.0000000  0  8G26G10G27G 7G 2G 4G13G 8
  22677933.0244   22677944.4744   -3647182.540 9  -2818827.57946  22677932.995
  24637980.1804   24638006.9494    2064428.161 8   1598980.74645  24637981.163
  23296844.8804   23296857.3984    1898824.014 9   1474056.25646  23296845.290
  20174044.7094   20174054.7494    -314254.087 9   -242764.26648  20174045.450
  22281175.2834   22281186.1494    2379809.945 9   1826245.32547  22281175.918
  23482233.7684   23482249.8364   -3054261.883 9  -2368771.83646  23482233.819
  21687310.8474   21687321.0364    3846078.622 9   2989722.14148  21687310.687
  22000182.1614   22000193.0294    -118084.812 9    -91104.05647  22000182.692
 00  6 25  4 33  0.0000000  0  8G26G10G27G 7G 2G 4G13G 8
  22662762.0264   22662773.4524   -3726906.714 9  -2880950.28646  22662761.857
  24643949.9474   24643976.7284    2095798.007 8   1623424.37345  24643951.023
  23304456.8404   23304469.2384    1938824.752 9   1505225.60646  23304457.304
  20176326.0804   20176336.1124    -302265.513 9   -233422.50948  20176326.819
  22287528.0654   22287538.9264    2413193.949 9   1852258.78947  22287528.673
  23467514.6384   23467530.5044   -3131610.658 9  -2429043.30946  23467514.640
  21700571.9474   21700582.1924    3915766.178 9   3044024.07648  21700571.811
  22001058.3744   22001069.2904    -113480.173 9    -87516.04947  22001058.953
 00  6 25  4 33 30.0000000  0  8G26G10G27G 7G 2G 4G13G 8
  22647668.8254   22647680.2314   -3806222.161 9  -2942754.51246  22647668.689
  24649892.2444   24649918.8164    2127023.257 8   1647755.37045  24649893.419
  23312115.0384   23312127.3864    1979068.557 9   1536584.35046  23312115.441
  20178708.0614   20178718.0874    -289748.024 9   -223668.61448  20178708.800
  22293870.6344   22293881.5254    2446524.047 9   1878230.24547  22293871.303
  23452782.2684   23452798.2904   -3209028.133 9  -2489368.26846  23452782.311
  21713896.1434   21713906.4184    3985785.053 9   3098584.18948  21713895.996
  22001987.2314   22001998.0974    -108599.060 9    -83712.59847  22001987.746
 00  6 25  4 34  0.0000000  0  8G26G10G27G 7G 2G 4G13G 8
  22632654.3094   22632665.7414   -3885124.135 9  -3004236.52546  22632654.218
  24655807.0994   24655834.0514    2158104.180 8   1671973.90445  24655808.178
  23319820.0154   23319832.5224    2019558.292 9   1568134.73546  23319820.415
  20181190.9524   20181200.9604    -276700.440 9   -213501.65648  20181191.676
  22300203.2514   22300214.1624    2479802.123 9   1904161.16747  22300203.905
  23438037.7844   23438053.6844   -3286509.241 9  -2549742.85446  23438037.730
  21727283.4254   21727293.6434    4056135.172 9   3153402.41948  21727283.283
  22002969.4714   22002980.3344    -103437.576 9    -79690.67447  22002970.005
 00  6 25  4 34 30.0000000  0  8G26G10G27G 7G 2G 4G13G 8
  22617726.8044   22617738.1634   -3963568.917 9  -3065362.31446  22617726.703
  24661701.7384   24661728.8114    2189079.829 8   1696110.35345  24661702.818
  23327579.7134   23327592.2404    2060335.544 9   1599909.14446  23327580.113
  20183782.3084   20183792.2944    -263082.708 9   -202890.42948  20183783.085
  22306533.8184   22306544.6874    2513069.127 9   1930083.46747  22306534.423
  23423289.6144   23423305.4044   -3364009.791 9  -2610132.58746  23423289.608
  21740741.0384   21740751.2704    4126855.120 9   3208508.82248  21740740.925
  22004013.2294   22004024.1494     -97952.575 9    -75416.67747  22004013.831
 00  6 25  4 35  0.0000000  0  8G26G10G27G 7G 2G 4G13G 8
  22602866.9514   22602878.2074   -4041658.112 9  -3126211.01346  22602866.860
  24667556.0874   24667583.2384    2219844.333 8   1720082.26245  24667557.274
  23335374.4164   23335386.9234    2101296.920 9   1631827.03946  23335374.826
  20186462.1534   20186472.1334    -248999.906 9   -191916.80948  20186462.896
  22312842.3504   22312853.3044    2546220.598 9   1955915.73947  22312842.993
  23408518.5114   23408534.1894   -3441631.093 9  -2670616.40846  23408518.615
  21754248.6874   21754258.9254    4197838.037 9   3263820.13547  21754248.576
  22005099.0174   22005109.9214     -92246.661 9    -70970.53147  22005099.578
 00  6 25  4 35 30.0000000  0  8G26G10G27G 7G 2G 4G13G 8
  22588078.0284   22588089.3424   -4119374.402 9  -3186769.13146  22588077.989
  24673372.8194   24673400.5514    2250410.810 8   1743899.87445  24673374.025
  23343207.1844   23343219.6504    2142457.908 9   1663900.46846  23343207.593
  20189233.1454   20189243.1104    -234438.226 9   -180570.03848  20189233.891
  22319131.6774   22319142.6834    2579271.113 9   1981669.33647  22319132.359
  23393727.9104   23393743.3314   -3519355.093 9  -2731180.26546  23393727.963
  21767808.7294   21767818.9694    4269096.430 9   3319346.10147  21767808.584
  22006230.1044   22006240.9704     -86303.011 9    -66339.14047  22006230.731
 00  6 25  4 36  0.0000000  0  8G26G10G27G 7G 2G 4G13G 8
  22573365.1244   22573376.3454   -4196691.443 9  -3247016.15846  22573365.058
  24679155.9654   24679183.7664    2280800.890 8   1767580.01245  24679157.138
  23351082.4324   23351095.0204    2183842.680 9   1696148.26746  23351082.865
  20192099.6004   20192109.5744    -219375.057 9   -168832.48948  20192100.351
  22325406.3134   22325417.3764    2612244.217 9   2007362.62447  22325406.992
  23378922.7694   23378938.0614   -3597155.427 9  -2791803.61546  23378922.826
  21781425.1734   21781435.5114    4340651.431 9   3375103.19647  21781425.032
  22007411.1864   22007422.0454     -80096.336 9    -61502.79747  22007411.847
 00  6 25  4 36 30.0000000  0  8G26G10G27G 7G 2G 4G13G 8
  22558736.7414   22558747.8994   -4273563.647 9  -3306916.54346  22558736.674
  24684913.7184   24684941.6174    2311056.229 8   1791155.22645  24684914.860
  23359008.6554   23359021.2314    2225494.988 9   1728604.55546  23359009.067
  20195069.4644   20195079.4354    -203768.293 9   -156671.36648  20195070.218
  22331674.4144   22331685.3734    2645182.786 9   2033028.99347  22331675.111
  23364111.9124   23364127.1424   -3674985.738 9  -2852450.30046  23364111.906
  21795105.8924   21795116.1744    4412543.723 9   3431123.10747  21795105.766
  22008650.9584   22008661.7384     -73581.531 9    -56426.35747  22008651.558
 00  6 25  4 37  0.0000000  0  8G26G10G27G 7G 2G 4G13G 8
  22544199.3564   22544210.5314   -4349957.820 9  -3366444.44146  22544199.330
  24690651.6774   24690679.4744    2341205.695 8   1814647.92245  24690652.554
  23366991.7794   23367004.3254    2267445.984 9   1761293.57146  23366992.163
  20198148.3434   20198158.3464    -187588.380 9   -144063.63048  20198149.086
  22337941.6754   22337952.5994    2678117.288 9   2058692.18847  22337942.346
  23349301.8754   23349316.9694   -3752812.330 9  -2913094.11546  23349301.852
  21808856.0834   21808866.3914    4484801.214 9   3487427.59547  21808855.973
  22009955.4554   22009966.2884     -66726.291 9    -51084.63847  22009956.080
 00  6 25  4 37 30.0000000  0  8G26G10G27G 7G 2G 4G13G 8
  22529752.0774   22529763.1714   -4425878.501 9  -3425603.38846  22529752.051
  24696367.4194   24696395.1034    2371240.567 8   1838051.34845  24696368.440
  23375030.4234   23375043.0404    2309689.295 9   1794210.37146  23375030.819
  20201334.8074   20201344.7854    -170843.409 9   -131015.59148  20201335.551
  22344206.7974   22344217.7714    2711040.392 9   2084346.51547  22344207.494
  23334491.7084   23334506.8244   -3830639.312 9  -2973738.24546  23334491.668
  21822673.9574   21822684.2524    4557414.315 9   3544009.18047  21822673.861
  22011323.7374   22011334.5614     -59535.929 9    -45481.79347  22011324.353
 00  6 25  4 38  0.0000000  0  8G26G10G27G 7G 2G 4G13G 8
  22515388.3914   22515399.4774   -4501360.183 9  -3484420.25646  22515388.320
  24702054.1734   24702081.7284    2401121.924 8   1861335.14545  24702055.172
  23383117.7644   23383130.3664    2352188.390 9   1827326.48546  23383118.205
  20204621.5424   20204631.5064    -153571.618 9   -117557.03848  20204622.317
  22350462.6674   22350473.6814    2743915.118 9   2109963.14447  22350463.364
  23319675.0664   23319690.2294   -3908500.294 9  -3034408.84246  23319674.951
  21836552.0094   21836562.3074    4630343.684 9   3600837.20747  21836551.904
  22012749.0914   22012759.9354     -52045.542 9    -39645.15647  22012749.721
 00  6 25  4 38 30.0000000  0  8G26G10G27G 7G 2G 4G13G 8
  22501106.2684   22501117.4704   -4576413.160 9  -3542903.06246  22501106.215
  24707709.0494   24707736.4504    2430835.250 8   1884488.01445  24707709.776
  23391251.5034   23391264.1474    2394931.223 9   1860632.50946  23391251.927
  20208005.8794   20208015.8454    -135786.736 9   -103698.68148  20208006.654
  22356706.8544   22356717.9464    2776728.612 9   2135532.05847  22356707.485
  23304849.9294   23304865.1214   -3986405.183 9  -3095113.67446  23304849.904
  21850487.3234   21850497.6424    4703574.025 9   3657899.75247  21850487.245
  22014229.4664   22014240.2824     -44266.205 9    -33583.37147  22014230.066
 00  6 25  4 39  0.0000000  0  8G26G10G27G 7G 2G 4G13G 8
  22486916.5524   22486927.8024   -4650980.713 9  -3601007.60946  22486916.566
  24713341.4704   24713369.1054    2460433.280 8   1907551.03545  24713342.524
  23399442.0534   23399454.7284    2437972.413 9   1894171.02846  23399442.504
  20211497.8814   20211507.8874    -117435.802 9    -89399.23548  20211498.657
  22362949.6924   22362960.7764    2809534.981 9   2161095.42147  22362950.285
  23290027.3404   23290042.4594   -4064296.702 9  -3155808.07246  23290027.389
  21864489.7094   21864500.0654    4777156.949 9   3715237.04247  21864489.628
  22015775.4664   22015786.3104     -36141.954 9    -27252.81647  22015776.108
 00  6 25  4 39 30.0000000  0  8G26G10G27G 7G 2G 4G13G 8
  22472813.7164   22472824.9794   -4725091.433 9  -3658756.18846  22472813.705
  24718946.0394   24718973.4574    2489883.070 8   1930498.58745  24718946.811
  23407683.6184   23407696.2484    2481281.689 9   1927918.44046  23407684.056
  20215091.5934   20215101.5594     -98550.844 9    -74683.67648  20215092.347
  22369185.2754   22369196.3904    2842303.075 9   2186628.95247  22369185.951
  23275202.1044   23275217.1374   -4142202.613 9  -3216513.71446  23275202.117
  21878552.8334   21878563.2094    4851058.923 9   3772822.93747  21878552.722
  22017381.5344   22017392.3614     -27702.250 9    -20676.45147  22017382.158
 00  6 25  4 40  0.0000000  0  8G26G10G27G 7G 2G 4G13G 8
  22458792.8414   22458804.1144   -4798770.981 9  -3716168.78646  22458792.815
  24724516.3344   24724543.6294    2519154.862 8   1953307.45445  24724517.293
  23415970.9114   23415983.5424    2524831.524 9   1961853.30546  23415971.369
  20218781.3494   20218791.2574     -79161.270 9    -59574.91348  20218782.137
  22375408.2174   22375419.3884    2875004.749 9   2212110.73247  22375408.878
  23260369.5514   23260384.2354   -4220148.073 9  -3277250.17746  23260369.451
  21892670.8194   21892681.1944    4925249.270 9   3830633.53847  21892670.717
  22019042.6844   22019053.5204     -18973.072 9    -13874.52647  22019043.300
 00  6 25  4 40 30.0000000  0  8G26G10G27G 7G 2G 4G13G 8
  22444858.4084   22444869.6844   -4871996.583 9  -3773227.66746  22444858.428
  24730056.3294   24730084.2604    2548267.677 8   1975992.37245  24730057.455
  23424307.9594   23424320.6004    2568642.754 9   1995991.85046  23424308.373
  20222570.7464   20222580.6724     -59247.846 9    -44057.95248  20222571.553
  22381622.4154   22381633.6024    2907660.367 9   2237556.62047  22381623.064
  23245533.7824   23245548.3174   -4298109.562 9  -3337999.14046  23245533.698
  21906847.0854   21906857.4364    4999745.937 9   3888682.82947  21906847.031
  22020763.0434   22020773.9394      -9932.416 9     -6829.89647  22020763.645
 00  6 25  4 41  0.0000000  0  8G26G10G27G 7G 2G 4G13G 8
  22431010.6254   22431021.8774   -4944767.118 9  -3829931.94346  22431010.656
  24735565.5734   24735593.7434    2577218.582 8   1998551.14945  24735567.037
  23432694.6734   23432707.2014    2612714.595 9   2030333.47246  23432695.089
  20226459.2944   20226469.2574     -38813.144 9    -28134.80248  20226460.048
  22387827.5704   22387838.8354    2940268.513 9   2262965.53047  22387828.190
  23230695.3554   23230709.8184   -4376085.230 9  -3398759.10446  23230695.243
  21921080.9314   21921091.2514    5074544.927 9   3946967.70347  21921080.884
  22022542.8704   22022553.7054       -580.083 9       457.60947  22022543.374
 00  6 25  4 41 30.0000000  0  8G26G10G27G 7G 2G 4G13G 8
  22417239.4884   22417250.7244   -5017135.084 9  -3886322.53146  22417239.503
  24741033.7454   24741061.7824    2605950.800 8   2020939.53044  24741034.962
  23441120.5304   23441133.0544    2656992.522 9   2064835.67046  23441121.013
  20230436.4004   20230446.3144     -17913.436 9    -11849.31648  20230437.126
  22394013.1764   22394024.5014    2972774.086 9   2288294.49647  22394013.793
  23215844.3664   23215858.7274   -4454127.021 9  -3459570.63546  23215844.252
  21935361.2854   21935371.6514    5149588.687 9   4005443.29747  21935361.174
  22024371.8344   22024382.5914       9030.829 9      7946.59747  22024372.373
 00  6 25  4 42  0.0000000  0  8G26G10G27G 7G 2G 4G13G 8
  22403554.6024   22403565.7044   -5089049.857 9  -3942359.99546  22403554.637
  24746469.2964   24746496.9834    2634510.820 8   2043193.72445  24746469.999
  23449594.9234   23449607.4674    2701525.413 9   2099536.55146  23449595.355
  20234510.9404   20234520.8334       3498.413 9      4835.23948  20234511.695
  22400188.5534   22400199.8614    3005225.526 9   2313581.28647  22400189.226
  23200990.5294   23201004.9574   -4532183.267 9  -3520393.42646  23200990.379
  21949697.0414   21949707.3834    5224923.138 9   4064145.41447  21949696.977
  22026259.4684   22026270.2764      18950.420 9     15676.11047  22026260.016
 00  6 25  4 42 30.0000000  0  8G26G10G27G 7G 2G 4G13G 8
  22389953.9184   22389964.9794   -5160521.735 9  -3998052.32546  22389953.986
  24751868.4284   24751897.0894    2662884.234 8   2065302.51944  24751869.369
  23458115.5244   23458128.1364    2746301.138 9   2134426.64646  23458115.993
  20238680.2334   20238690.1824      25408.496 9     21908.02848  20238680.979
  22406351.1464   22406362.4234    3037610.120 9   2338815.96247  22406351.818
  23186132.0954   23186146.5264   -4610263.592 9  -3581234.95946  23186131.968
  21964085.0804   21964095.5244    5300532.844 9   4123062.01047  21964085.006
  22028203.7524   22028214.5824      29167.513 9     23637.44047  22028204.276
 00  6 25  4 43  0.0000000  0  8G26G10G27G 7G 2G 4G13G 8
  22376437.6044   22376448.6594   -5231550.250 9  -4053399.18946  22376437.673
  24757231.9344   24757260.5374    2691067.864 7   2087263.43644  24757232.710
  23466681.9844   23466694.6574    2791318.214 9   2169504.80346  23466682.468
  20242943.7424   20242953.6974      47813.344 9     39366.34848  20242944.485
  22412500.6684   22412511.9694    3069925.970 9   2363997.10647  22412501.293
  23171269.3144   23171283.6584   -4688366.842 9  -3642094.35446  23171269.262
  21978524.6544   21978535.2294    5376413.556 9   4182189.78047  21978524.613
  22030204.6474   22030215.4894      39681.997 9     31830.50347  22030205.171
 00  6 25  4 43 30.0000000  0  8G26G10G27G 7G 2G 4G13G 8
  22363013.7684   22363024.7884   -5302092.981 9  -4108367.52946  22363013.793
  24762566.3314   24762595.1204    2719100.096 8   2109106.49644  24762567.245
  23475302.1564   23475314.8254    2836617.371 9   2204802.75446  23475302.601
  20247308.8904   20247318.8214      70752.147 9     57240.73848  20247309.638
  22418644.8354   22418656.0624    3102213.408 9   2389156.09847  22418645.449
  23156410.3614   23156424.7834   -4766449.414 9  -3702937.66146  23156410.388
  21993023.0374   21993033.6674    5452602.796 9   4241557.94647  21993022.949
  22032270.0474   22032280.8454      50535.620 9     40287.82947  22032270.543
 00  6 25  4 44  0.0000000  0  8G26G10G27G 7G 2G 4G13G 8
  22349679.2094   22349690.2644   -5372166.388 9  -4162970.14446  22349679.278
  24767868.1704   24767897.8184    2746960.664 8   2130815.72644  24767869.341
  23483972.5244   23483985.2784    2882180.155 9   2240306.13246  23483972.887
  20251771.7204   20251781.6214      94204.434 9     75515.24248  20251772.485
  22424779.9284   22424791.1634    3134453.385 9   2414278.11547  22424780.590
  23141552.4774   23141566.8334   -4844527.048 9  -3763777.11246  23141552.450
  22007575.9824   22007586.6094    5529078.974 9   4301149.71447  22007575.853
  22034396.7244   22034407.4554      61711.175 9     48996.01147  22034397.263
 00  6 25  4 44 30.0000000  0  8G26G10G27G 7G 2G 4G13G 8
  22336435.9084   22336446.8494   -5441760.357 9  -4217199.19546  22336435.946
  24773138.8914   24773168.5104    2774655.942 8   2152396.08444  24773139.776
  23492694.6954   23492707.6064    2928015.002 9   2276021.49746  23492695.075
  20256333.5424   20256343.4404     118176.942 9     94195.11448  20256334.323
  22430907.4764   22430918.7984    3166653.931 9   2439369.39147  22430908.139
  23126697.6014   23126711.9374   -4922588.744 9  -3824604.13846  23126697.554
  22022184.5894   22022195.2204    5605847.612 9   4360969.37947  22022184.484
  22036586.4784   22036597.2044      73218.212 9     57962.49547  22036586.993
 00  6 25  4 45  0.0000000  0  8G26G10G27G 7G 2G 4G13G 8
  22323284.4624   22323295.4484   -5510871.593 9  -4271052.07746  22323284.428
  24778377.5984   24778407.5934    2802185.032 8   2173846.99245  24778378.738
  23501468.8514   23501481.8664    2974123.311 9   2311949.97846  23501469.288
  20260994.2264   20261004.1914     142669.179 9    113279.97748  20260994.996
  22437027.8184   22437039.0654    3198816.001 9   2464430.69447  22437028.425
  23111846.6824   23111860.7924   -5000630.181 9  -3885415.40246  23111846.703
  22036848.5574   22036859.2184    5682906.986 9   4421015.57747  22036848.507
  22038839.8094   22038850.5904      85059.476 9     67189.41547  22038840.351
 00  6 25  4 45 30.0000000  0  8G26G10G27G 7G 2G 4G13G 8
  22310224.5634   22310235.5194   -5579502.108 9  -4324530.37546  22310224.593
  24783583.5024   24783613.7894    2829542.405 8   2195164.09844  24783584.928
  23510294.3614   23510307.3494    3020501.101 9   2348088.42146  23510294.807
  20265752.7514   20265762.7184     167675.302 9    132765.26648  20265753.481
  22443139.9274   22443151.2764    3230935.210 9   2489458.58947  22443140.614
  23096999.3004   23097013.3254   -5078652.737 9  -3946211.94746  23096999.262
  22051566.5184   22051577.2324    5760250.198 9   4481282.94847  22051566.388
  22041156.2054   22041166.9514      97232.179 9     76674.60147  22041156.687
 00  6 25  4 46  0.0000000  0  8G26G10G27G 7G 2G 4G13G 8
  22297259.1484   22297270.1774   -5647635.474 9  -4377621.28846  22297259.146
  24788759.6204   24788789.9384    2856740.536 8   2216357.19845  24788760.870
  23519173.9644   23519186.9054    3067163.034 9   2384448.26746  23519174.286
  20270611.5584   20270621.4834     193208.291 9    152661.09848  20270612.318
  22449246.7094   22449258.0224    3263026.121 9   2514464.44747  22449247.381
  23082158.8144   23082172.6944   -5156638.738 9  -4006980.00646  23082158.787
  22066340.7204   22066351.4694    5837888.896 9   4541780.57647  22066340.564
  22043538.6754   22043549.4274     109752.072 9     86430.31447  22043539.179
 00  6 25  4 46 30.0000000  0  8G26G10G27G 7G 2G 4G13G 8
  22284389.2184   22284400.2104   -5715267.280 9  -4430321.37746  22284389.167
  24793905.1674   24793935.5794    2883780.081 8   2237426.66245  24793906.481
  23528108.0604   23528121.0124    3114111.638 9   2421031.50446  23528108.443
  20275570.7144   20275580.6494     219268.811 9    172967.99748  20275571.452
  22455348.5564   22455359.8554    3295090.945 9   2539449.97647  22455349.251
  23067326.3234   23067340.2834   -5234582.852 9  -4067715.40846  23067326.278
  22081171.1634   22081181.9214    5915822.797 9   4602508.21947  22081171.010
  22045988.0504   22045998.8254     122623.205 9     96459.73647  22045988.528
 00  6 25  4 47  0.0000000  0  8G26G10G27G 7G 2G 4G13G 8
  22271625.8154   22271636.7794   -5782339.224 9  -4482585.20246  22271625.894
  24799030.4894   24799061.1164    2910715.811 8   2258415.25245  24799032.333
  23537107.4894   23537120.4344    3161403.501 9   2457882.20346  23537107.832
  20280640.6654   20280650.5884     245911.477 9    193728.51148  20280641.402
  22461456.0274   22461467.3554    3327185.732 9   2564458.84847  22461456.776
  23052513.1174   23052527.0864   -5312425.712 9  -4128371.93946  23052512.982
  22096067.8504   22096078.5964    5994105.119 9   4663507.36047  22096067.681
  22048515.1314   22048525.9774     135902.802 9    106807.43747  22048515.713
 00  6 25  4 47 30.0000000  0  8G26G10G27G 7G 2G 4G13G 8
  22258954.8074   22258965.7374   -5848925.840 9  -4534470.85046  22258954.842
  24804121.9434   24804152.5104    2937469.351 8   2279261.89345  24804123.648
  23546157.7144   23546170.6354    3208962.208 9   2494940.83846  23546158.011
  20285806.5184   20285816.3784     273058.113 9    214881.72648  20285807.259
  22467554.6554   22467565.9814    3359234.047 9   2589431.50547  22467555.404
  23037705.1994   23037719.1074   -5390240.974 9  -4189006.96246  23037705.092
  22111015.7724   22111026.5134    6072656.747 9   4724716.35347  22111015.665
  22051105.6274   22051116.5514     149516.037 9    117415.10647  22051106.150
 00  6 25  4 48  0.0000000  0  9G26G10G27G 7G 2G24G 4G13G 8
  22246380.4414   22246391.4894   -5915004.002 9  -4585960.31046  22246380.489
  24809182.5694   24809212.8164    2964060.326 8   2299981.87945  24809184.060
  23555262.7014   23555275.6524    3256809.272 9   2532224.18146  23555263.028
  20291072.0334   20291081.8354     300728.360 9    236442.94748  20291072.765
  22473648.4374   22473659.7694    3391257.066 9   2614384.45347  22473649.154
  24669360.1574   24669387.0244    -279823.075 8   -201003.12045  24669360.909
  23022907.1344   23022920.9834   -5468004.335 9  -4249601.53946  23022907.045
  22126018.4664   22126029.1654    6151496.191 9   4786149.60547  22126018.358
  22053764.0174   22053774.8554     163485.372 9    128300.26947  22053764.555
 00  6 25  4 48 30.0000000  0  9G26G10G27G 7G 2G24G 4G13G 8
  22233892.6364   22233903.6404   -5980627.635 9  -4637095.59046  22233892.589
  24814200.9574   24814231.1464    2990431.008 8   2320530.19445  24814202.412
  23564411.9884   23564425.0504    3304888.867 9   2569688.68646  23564412.368
  20296426.1474   20296435.9844     328864.469 9    258367.18248  20296426.901
  22479726.6994   22479738.0814    3423198.592 9   2639273.91547  22479727.424
  24652199.5584   24652225.4144    -370004.218 8   -271273.48845  24652198.740
  23008108.9784   23008122.7274   -5545768.476 9  -4310196.74046  23008108.963
  22141064.7504   22141075.4154    6230564.558 9   4847761.26147  22141064.616
  22056479.6974   22056490.4904     177756.285 9    139420.42447  22056480.288
 00  6 25  4 49  0.0000000  0  9G26G10G27G 7G 2G24G 4G13G 8
  22221492.3514   22221503.3824   -6045791.607 9  -4687872.68046  22221492.339
  24819177.6104   24819208.0924    3016582.985 8   2340908.14045  24819179.134
  23573606.1824   23573619.2594    3353204.305 9   2607336.99446  23573606.553
  20301869.1684   20301879.0514     357467.860 9    280655.53148  20301869.907
  22485790.1714   22485801.6144    3455062.162 9   2664102.60447  22485790.909
  24634989.4824   24635016.0984    -460437.057 8   -341739.85545  24634989.537
  22993311.8214   22993325.5034   -5623527.189 9  -4370787.70746  22993311.746
  22156154.5634   22156165.2734    6309862.198 9   4909551.56547  22156154.429
  22059253.5974   22059264.4454     192333.237 9    150779.04447  22059254.195
 00  6 25  4 49 30.0000000  0  9G26G10G27G 7G 2G24G 4G13G 8
  22209198.2124   22209209.1964   -6110398.012 9  -4738215.32147  22209198.187
  24824130.7924   24824161.2584    3042610.388 8   2361189.00545  24824132.053
  23582863.6234   23582876.5714    3401851.791 9   2645244.01846  23582863.965
  20307419.0664   20307428.9194     386632.841 9    303381.48148  20307419.784
  22491857.0214   22491868.4374    3486943.326 9   2688945.01647  22491857.709
  24617750.9474   24617777.9424    -551023.360 8   -412325.83945  24617751.231
  22978534.5524   22978548.1784   -5701181.555 9  -4431297.37346  22978534.486
  22171305.8344   22171316.5914    6389482.497 9   4971593.27147  22171305.720
  22062104.3034   22062115.1574     207313.470 9    162451.91447  22062104.943
 00  6 25  4 50  0.0000000  0  9G26G10G27G 7G 2G24G 4G13G 8
  22196990.3444   22197001.3374   -6174550.764 9  -4788204.44947  22196990.281
  24829039.3324   24829069.9944    3068405.774 8   2381289.07545  24829040.799
  23592164.0554   23592177.0924    3450725.672 9   2683327.45946  23592164.370
  20313055.4044   20313065.2004     416251.757 9    326461.14948  20313056.121
  22497907.1134   22497918.5224    3518736.472 9   2713718.82947  22497907.847
  24600463.8434   24600490.8024    -641866.524 8   -483111.96545  24600464.078
  22963757.5324   22963770.9774   -5778834.306 9  -4491805.79746  22963757.487
  22186497.8774   22186508.5824    6469316.789 9   5033801.74947  22186497.751
  22065011.9004   22065022.7424     222592.698 9    174357.76647  22065012.530
 00  6 25  4 50 30.0000000  0  9G26G10G27G 7G 2G24G 4G13G 8
  22184875.1814   22184886.1694   -6238216.202 9  -4837813.86147  22184875.172
  24833909.9614   24833940.5614    3093999.800 8   2401232.28545  24833911.185
  23601513.7024   23601526.7204    3499857.904 9   2721612.22146  23601513.937
  20318783.8394   20318793.6744     446354.779 9    349918.03448  20318784.579
  22503946.5224   22503957.9444    3550473.509 9   2738448.93447  22503947.226
  24583134.3314   24583161.2734    -732932.517 8   -554071.66645  24583134.614
  22948987.4674   22949000.9084   -5856450.442 9  -4552285.66846  22948987.385
  22201736.1084   22201746.8494    6549394.058 9   5096199.54347  22201735.968
  22067982.6744   22067993.5024     238204.087 9    186522.44047  22067983.273
 00  6 25  4 51  0.0000000  0  9G26G10G27G 7G 2G24G 4G13G 8
  22172847.2674   22172858.3074   -6301423.165 9  -4887066.02247  22172847.257
  24838736.1204   24838766.2354    3119359.874 8   2420993.21144  24838737.169
  23610906.6494   23610919.7184    3549217.757 9   2760074.33746  23610906.925
  20324598.1344   20324608.0684     476909.297 9    373726.74048  20324598.846
  22509969.3524   22509980.7924    3582123.567 9   2763111.25747  22509970.002
  24565756.7724   24565783.5644    -824249.912 8   -625227.27945  24565757.068
  22934219.1214   22934232.5354   -5934057.583 9  -4612758.54346  22934219.055
  22217014.2414   22217024.9964    6629680.776 9   5158760.53247  22217014.122
  22071011.0674   22071021.8664     254117.960 9    198922.82947  22071011.623
 00  6 25  4 51 30.0000000  0  9G26G10G27G 7G 2G24G 4G13G 8
  22160923.8914   22160934.8884   -6364081.127 9  -4935890.37747  22160923.792
  24843534.5074   24843564.4644    3144573.129 8   2440639.71745  24843535.189
  23620359.7454   23620372.9474    3598893.955 9   2798782.95846  23620360.016
  20330514.9274   20330524.8794     508002.271 9    397955.01348  20330515.615
  22515992.5134   22516004.0024    3613775.306 9   2787774.89947  22515993.187
  24548348.6234   24548375.5474    -915727.681 8   -696507.84645  24548348.942
  22919470.0124   22919483.3894   -6011563.958 9  -4673152.91446  22919469.928
  22232348.4554   22232359.2794    6710262.650 9   5221551.53547  22232348.333
  22074114.1094   22074124.9364     270424.426 9    211629.13047  22074114.659
 00  6 25  4 52  0.0000000  0  9G26G10G27G 7G 2G24G 4G13G 8
  22149091.4934   22149102.5504   -6426260.754 9  -4984342.02147  22149091.422
  24848290.6954   24848320.4044    3169565.572 8   2460114.11244  24848291.248
  23629859.3184   23629872.6564    3648814.355 9   2837681.86946  23629859.638
  20336520.1004   20336529.9974     539559.419 9    422544.97948  20336520.837
  22522002.2124   22522013.7034    3645356.362 9   2812383.45247  22522002.824
  24530896.5064   24530923.3704   -1007436.020 8   -767968.06345  24530896.779
  22904726.8384   22904740.1374   -6089038.968 9  -4733522.83046  22904726.720
  22247724.5814   22247735.4194    6791064.622 9   5284514.02047  22247724.479
  22077278.3684   22077289.2144     287052.331 9    224585.89647  22077278.961
 00  6 25  4 52 30.0000000  0  9G26G10G27G 7G 2G24G 4G13G 8
  22137343.0364   22137354.1024   -6487999.015 9  -5032449.74647  22137342.968
  24852996.9784   24853026.6604    3194296.973 8   2479385.18844  24852997.482
  23639398.0364   23639411.3404    3698940.213 9   2876740.87546  23639398.435
  20342605.7974   20342615.6564     571539.969 9    447464.88248  20342606.543
  22527991.1064   22528002.6204    3676827.939 9   2836906.70447  22527991.745
  24513393.6224   24513420.2174   -1099411.484 8   -839636.33545  24513393.681
  22889982.8254   22889996.2054   -6166518.367 9  -4793896.17546  22889982.728
  22263134.6324   22263145.5554    6872044.904 9   5347615.45947  22263134.481
  22080496.5704   22080507.3984     303963.901 9    237763.70847  22080497.107
 00  6 25  4 53  0.0000000  0  9G26G10G27G 7G 2G24G 4G13G 8
  22125688.9044   22125699.9254   -6549241.522 9  -5080171.14047  22125688.792
  24857663.3114   24857693.1354    3218818.464 8   2498492.74844  24857663.914
  23648985.8574   23648999.1794    3749324.084 9   2916000.95046  23648986.273
  20348781.7424   20348791.6064     603994.758 9    472754.31848  20348782.489
  22533969.2384   22533980.8384    3708242.889 9   2861385.83347  22533969.919
  24495850.4774   24495876.8694   -1191598.952 9   -911469.91745  24495850.675
  22875248.6654   22875261.9804   -6243946.094 9  -4854229.27046  22875248.590
  22278588.2144   22278599.1294    6953253.490 9   5410894.79447  22278588.105
  22083779.0184   22083789.9124     321213.275 9    251204.74647  22083779.555
 00  6 25  4 53 30.0000000  0  9G26G10G27G 7G 2G24G 4G13G 8
  22114133.5954   22114144.6244   -6609964.728 9  -5127487.89147  22114133.510
  24862293.3524   24862323.6894    3243150.124 8   2517452.33144  24862294.349
  23658626.8944   23658640.3384    3799987.831 9   2955479.07946  23658627.317
  20355051.7514   20355061.6424     636943.849 9    498428.92548  20355052.502
  22539940.7734   22539952.3864    3739623.200 9   2885837.96847  22539941.525
  24478271.3774   24478297.6544   -1283974.312 9   -983449.93045  24478271.699
  22860528.9464   22860542.2014   -6321297.573 9  -4914502.95046  22860528.908
  22294088.8334   22294099.7714    7034709.435 9   5474366.87347  22294088.735
  22087130.1384   22087141.0954     338823.208 9    264926.72947  22087130.677
 00  6 25  4 54  0.0000000  0  9G26G10G27G 7G 2G24G 4G13G 8
  22102676.6854   22102687.8284   -6670170.906 9  -5174401.79547  22102676.644
  24866886.8034   24866916.6744    3267286.072 8   2536259.41444  24866887.630
  23668320.5024   23668333.9534    3850927.303 9   2995172.06246  23668320.825
  20361414.6464   20361424.5524     670380.975 9    524483.81548  20361415.411
  22545904.9254   22545916.4444    3770964.428 9   2910259.64347  22545905.691
  24460656.2714   24460682.4374   -1376539.610 9  -1055577.88645  24460656.480
  22845823.6264   22845836.7994   -6398573.522 9  -4974717.78546  22845823.556
  22309635.2114   22309646.1584    7116405.766 9   5538026.27047  22309635.132
  22090549.3214   22090560.2044     356790.811 9    278927.41647  22090549.876
 00  6 25  4 54 30.0000000  0  9G26G10G27G 7G 2G24G 4G13G 8
  22091316.3804   22091327.5564   -6729869.313 9  -5220920.02447  22091316.303
                  24871439.7204    3291213.902 8   2554904.35454  24871440.956
  23678064.4774   23678078.0244    3902131.843 9   3035071.60146  23678064.851
  20367868.0084   20367877.9074     704293.520 9    550909.16548  20367868.786
  22551859.5824   22551871.0584    3802256.013 9   2934642.65247  22551860.296
  24443003.3624   24443029.4074   -1469303.206 9  -1127860.34346  24443003.580
  22831131.2584   22831144.2814   -6475781.832 9  -5034879.92146  22831131.214
  22325224.7184   22325235.7104    7198328.811 9   5601862.31947  22325224.617
  22094034.7384   22094045.6674     375106.718 9    293199.51747  22094035.314
 00  6 25  4 55  0.0000000  0  9G26G10G27G 7G 2G24G 4G13G 8
  22080054.3964   22080065.6474   -6789051.320 9  -5267035.84347  22080054.358
  24875955.0044   24875985.0784    3314939.192 7   2573391.52344  24875955.741
  23687860.2354   23687873.9164    3953608.433 9   3075183.10346  23687860.620
  20374412.7384   20374422.6664     738686.500 9    577708.87448  20374413.461
  22557806.1564   22557817.5544    3833504.928 9   2958992.41347  22557806.840
  24425314.1904   24425340.4184   -1562255.830 8  -1200290.08745  24425314.535
  22816453.6984   22816466.6594   -6552912.412 9  -5094981.49146  22816453.713
  22340858.0864   22340869.1564    7280482.526 9   5665878.10747  22340857.979
  22097587.9584   22097598.9324     393778.747 9    307749.10747  22097588.557
 00  6 25  4 55 30.0000000  0  9G26G10G27G 7G 2G24G 4G13G 8
  22068891.4744   22068902.6754   -6847712.944 9  -5312746.18747  22068891.480
  24880431.5054   24880461.8054    3338462.594 7   2591721.30744  24880432.095
  23697708.2084   23697721.7594    4005359.357 9   3115508.39346  23697708.536
  20381048.9934   20381058.9354     773560.215 9    604883.18148  20381049.767
  22563745.0344   22563756.4634    3864713.749 9   2983310.91947  22563745.692
  24407590.0294   24407616.1554   -1655392.669 9  -1272863.39245  24407590.296
  22801791.9594   22801804.8774   -6629959.605 9  -5155018.08446  22801791.873
  22356535.3434   22356546.4064    7362866.549 9   5730073.35347  22356535.203
  22101209.6414   22101220.6184     412810.713 9    322579.17047  22101210.279
 00  6 25  4 56  0.0000000  0  9G26G10G27G 7G 2G24G 4G13G 8
  22057828.6724   22057839.8454   -6905848.816 9  -5358046.84547  22057828.652
                  24884870.0524    3361786.542 7   2609895.68354  24884870.652
  23707609.0444   23707622.5524    4057388.453 9   3156050.43946  23707609.404
  20387777.0764   20387787.0554     808916.603 9    632433.59848  20387777.861
  22569676.9584   22569688.4314    3895886.249 9   3007601.12647  22569677.687
  24389832.3314   24389858.0194   -1748707.720 9  -1345575.63145  24389832.516
  22787147.3164   22787160.0584   -6706916.798 9  -5214984.55246  22787147.231
  22372256.5594   22372267.6344    7445481.759 9   5794448.75347  22372256.427
  22104900.7154   22104911.6344     432207.170 9    337693.24947  22104901.297
 00  6 25  4 56 30.0000000  0  9G26G10G27G 7G 2G24G 4G13G 8
  22046866.2734   22046877.4414   -6963456.536 9  -5402935.96447  22046866.249
                  24889269.6294    3384910.441 7   2627914.24654  24889271.299
  23717563.0324   23717576.4484    4109696.365 9   3196809.73546  23717563.419
  20394596.7544   20394606.7524     844754.243 9    660359.02548  20394597.516
  22575602.2364   22575613.6804    3927023.439 9   3031863.83947  22575602.918
  24372041.1484   24372066.3324   -1842197.925 9  -1418424.36145  24372041.325
  22772520.5834   22772533.3634   -6783780.066 9  -5274877.81546  22772520.548
  22388021.4354   22388032.4434    7528326.108 9   5859002.69847  22388021.242
  22108661.4824   22108672.4384     451970.124 9    353092.91947  22108662.144
 00  6 25  4 57  0.0000000  0  9G26G10G27G 7G 2G24G 4G13G 8
  22036003.3124   22036014.4604   -7020541.920 9  -5447418.06547  22036003.290
                                   3407825.44517   2645770.01854
  23727568.7264   23727581.9224    4162275.576 9   3237780.43946  23727569.171
  20401506.2914   20401516.2944     881063.912 9    688652.25848  20401507.062
  22581519.4004   22581530.8664    3958117.943 9   3056093.28247  22581520.099
  24354215.8394   24354240.7074   -1935868.042 9  -1491413.32045  24354215.913
  22757910.9964   22757923.7484   -6860553.247 9  -5334700.90346  22757910.936
  22403828.0424   22403838.9654    7611389.467 9   5923727.29847  22403827.865
  22112490.8314   22112501.8144     472093.438 9    368773.37947  22112491.421
 00  6 25  4 57 30.0000000  0  9G26G10G27G 7G 2G24G 4G13G 8
  22025250.2764   22025261.3434   -7077049.675 9  -5491450.07047  22025250.207
                                   3430583.51618   2663503.45054
  23737636.1874   23737649.2774    4215179.779 9   3279004.39846  23737636.728
  20408515.3994   20408525.4124     917897.136 9    717353.45348  20408516.167
  22587438.6714   22587450.1814    3989223.607 9   3080331.41947  22587439.425
  24336366.6564   24336391.5154   -2029662.046 8  -1564498.74245  24336366.832
  22743329.3614   22743342.0384   -6937179.968 9  -5394409.86147  22743329.325
  22419685.9144   22419696.8744    7694722.577 9   5988662.08947  22419685.738
  22116399.1654   22116410.0744     492631.698 9    384777.17747  22116399.746
 00  6 25  4 58  0.0000000  0  9G26G10G27G 7G 2G24G 4G13G 8
  22014594.0844   22014605.0274   -7133048.707 9  -5535085.66247  22014594.004
  24902248.6824   24902279.5414    3453113.189 8   2681058.92144  24902249.546
  23747751.9534   23747765.1004    4268338.607 9   3320426.74146  23747752.475
  20415610.3874   20415620.4214     955181.591 9    746406.26448  20415611.075
  22593346.6624   22593358.2694    4020270.353 9   3104523.64347  22593347.359
  24318480.8684   24318505.9814   -2123648.047 8  -1637733.77245  24318480.948
  22728762.7454   22728775.2584   -7013727.321 9  -5454056.97847  22728762.701
  22435581.1304   22435592.1294    7778252.269 9   6053750.05547  22435580.956
  22120373.2944   22120384.1774     513515.607 9    401050.31247  22120373.916
 00  6 25  4 58 30.0000000  0  9G26G10G27G 7G 2G24G 4G13G 8
  22004036.4134   22004047.3464   -7188529.859 9  -5578317.71147  22004036.349
  24906493.5434   24906523.9354    3475420.260 8   2698440.98444  24906494.871
  23757917.6174   23757930.6944    4321759.458 9   3362053.26646  23757918.049
  20422792.3454   20422802.3324     992922.769 9    775814.95348  20422793.064
  22599244.9484   22599256.4744    4051265.811 9   3128675.90347  22599245.656
  24300560.7534   24300585.7814   -2217815.852 9  -1711110.53745  24300560.938
  22714213.2184   22714225.6474   -7090184.589 9  -5513633.91146  22714213.186
  22451514.7004   22451525.7364    7861983.270 9   6118994.89447  22451514.521
  22124414.8164   22124425.7534     534753.964 9    417599.63347  22124415.419
 00  6 25  4 59  0.0000000  0  9G26G10G27G 7G 2G24G 4G13G 8
  21993578.9924   21993589.8904   -7243483.932 9  -5621139.05447  21993578.886
  24910697.7414   24910728.5504    3497511.214 8   2715654.67445  24910698.755
  23768134.7524   23768147.8254    4375449.918 9   3403889.87546  23768135.056
  20430062.2624   20430072.2534    1031126.330 9    805583.94648  20430063.024
  22605134.9214   22605146.4504    4082217.839 9   3152794.32347  22605135.570
  24282608.0714   24282632.7464   -2312155.383 9  -1784621.11045  24282608.127
  22699683.0374   22699695.3654   -7166540.815 9  -5573132.10546  22699682.994
  22467487.5324   22467498.5764    7945920.519 9   6184400.43147  22467487.357
  22128525.4604   22128536.4044     556355.367 9    434431.85647  22128526.020
 00  6 25  4 59 30.0000000  0  9G26G10G27G 7G 2G24G 4G13G 8
  21983228.8874   21983239.8074   -7297873.952 9  -5663520.86347  21983228.770
  24914867.1174   24914897.7154    3519419.881 8   2732726.33345  24914867.978
  23778409.8594   23778423.0084    4429445.260 9   3445964.04446  23778410.242
  20437426.5044   20437436.5494    1069825.717 9    835739.29948  20437427.282
  22611023.4144   22611035.0284    4113162.111 9   3176906.68747  22611023.979
  24264630.0384   24264654.4264   -2406628.407 8  -1858235.68145  24264630.128
  22685179.3874   22685191.6734   -7242757.271 9  -5632521.38546  22685179.378
  22483505.7734   22483516.7584    8030096.680 9   6249992.14547  22483505.641
  22132712.1324   22132723.0964     578356.333 9    451575.43647  22132712.778
 00  6 25  5  0  0.0000000  0  9G26G10G27G 7G 2G24G 4G13G 8
  21972986.4284   21972997.3244   -7351698.465 9  -5705462.03147  21972986.333
  24919001.4254   24919031.7934    3541145.388 8   2749655.29445  24919002.452
  23788742.8564   23788756.3114    4483745.819 9   3488276.04146  23788743.241
  20444884.7514   20444894.7904    1109018.976 9    866279.47148  20444885.496
  22616910.4794   22616922.1664    4144099.113 9   3201013.38447  22616911.046
  24246626.5634   24246650.7494   -2501232.629 8  -1931952.52545  24246626.812
  22670702.9694   22670715.1624   -7318830.810 9  -5691799.32947  22670702.953
  22499568.9924   22499580.0364    8114509.327 9   6315768.13747  22499568.833
  22136975.0214   22136986.0154     600758.093 9    469031.30747  22136975.686
 00  6 25  5  0 30.0000000  0  9G26G10G27G 7G 2G24G 4G13G 8
  21962850.9844   21962861.8924   -7404960.104 9  -5746964.59447  21962850.926
  24923099.5384   24923130.4134    3562681.858 8   2766436.93445  24923100.858
  23799133.1444   23799146.7844    4538347.167 9   3530822.41846  23799133.526
  20452435.7244   20452445.8014    1148699.675 9    897199.47548  20452436.475
  22622795.4944   22622807.1774    4175024.888 9   3225111.34847  22622795.965
  24228597.8034   24228622.2114   -2595969.762 8  -2005772.88745  24228598.061
  22656253.5734   22656265.7284   -7394762.434 9  -5750966.66947  22656253.507
  22515675.8414   22515686.8814    8199150.866 9   6381722.46947  22515675.719
  22141313.6084   22141324.6054     623557.409 9    486796.97047  22141314.252
 00  6 25  5  1  0.0000000  0  9G26G10G27G 7G 2G24G 4G13G 8
  21952816.2824   21952827.2044   -7457692.708 9  -5788054.91247  21952816.238
  24927154.9104   24927186.4204    3583992.586 8   2783042.69244  24927156.235
  23809574.0354   23809587.6394    4593214.139 9   3573575.78046  23809574.408
  20460072.4264   20460082.5324    1188830.778 9    928470.44148  20460073.164
  22628671.7474   22628683.3884    4205904.512 9   3249173.34047  22628672.264
  24210537.7654   24210562.0634   -2690872.303 9  -2079722.16045  24210538.198
  22641825.0714   22641837.2664   -7470583.963 9  -5810048.22347  22641825.009
  22531819.1074   22531830.1254    8283983.618 9   6447825.80747  22531819.008
  22145721.4064   22145732.3984     646720.342 9    504845.95847  22145722.071
 00  6 25  5  1 30.0000000  0  9G26G10G27G 7G 2G24G 4G13G 8
  21942863.9214   21942874.7754   -7509992.857 9  -5828808.27047  21942863.893
  24931148.2544   24931180.1154    3604978.447 7   2799395.33944  24931149.747
  23820046.8454   23820060.4914    4648248.339 9   3616459.43446  23820047.254
  20467775.7044   20467785.8034    1229311.772 9    960014.04948  20467776.430
  22634520.5384   22634532.2254    4236639.843 9   3273122.90347  22634521.062
  24192428.4404   24192452.1924   -2786036.054 9  -2153874.99645  24192428.771
  22627399.5784   22627411.6634   -7546390.389 9  -5869118.03547  22627399.436
  22547979.4594   22547990.5924    8368906.666 9   6513999.47947  22547979.327
  22150179.8594   22150190.8514     670149.498 9    523102.39947  22150180.473
 00  6 25  5  2  0.0000000  0  9G26G10G27G 7G 2G24G 4G13G 8
  21933011.6824   21933022.4334   -7561766.975 9  -5869151.72447  21933011.665
                  24935097.5714    3625730.131 7   2815565.51554  24935098.677
  23830569.0504   23830582.7804    4703541.907 9   3659545.20846  23830569.457
  20475562.7434   20475572.8724    1270233.010 9    991900.71248  20475563.459
  22640359.5454   22640371.2264    4267323.719 9   3297032.35747  22640359.992
  24174287.2904   24174310.7194   -2881366.019 8  -2228157.32845  24174287.693
  22612994.9414   22613007.0514   -7622086.447 9  -5928101.82547  22612994.844
  22564174.0874   22564185.2294    8454009.464 9   6580313.23847  22564173.921
  22154706.7164   22154717.7914     693938.120 9    541638.94147  22154707.359
 00  6 25  5  2 30.0000000  0  9G26G10G27G 7G 2G24G 4G13G 8
  21923249.7204   21923260.4724   -7613066.339 9  -5909125.24647  21923249.663
                  24938991.3074    3646193.948 7   2831511.40554  24938992.605
  23841130.5884   23841144.2164    4759042.317 9   3702792.14346  23841130.989
  20483423.1714   20483433.3374    1311539.708 9   1024087.72948  20483423.903
  22646178.8174   22646190.5064    4297903.815 9   3320860.95447  22646179.367
  24156104.8884   24156128.1294   -2976912.280 8  -2302608.18345  24156105.185
  22598601.9344   22598614.0414   -7697721.355 9  -5987037.96547  22598601.904
  22580392.3894   22580403.6034    8539236.749 9   6646723.99947  22580392.253
  22159292.1714   22159303.2634     718034.785 9    560415.51947  22159292.825
 00  6 25  5  3  0.0000000  0  9G26G10G27G 7G 2G24G 4G13G 8
  21913578.2364   21913588.9774   -7663890.323 9  -5948728.34247  21913578.235
                                   3666367.87317   2847231.38153
  23851731.1504   23851744.8374    4814748.473 9   3746199.41046  23851731.552
  20491356.4294   20491366.5614    1353229.008 9   1056572.87648  20491357.175
  22651978.1424   22651989.8914    4328379.476 9   3344608.17047  22651978.668
  24137881.4444   24137904.5734   -3072673.157 8  -2377226.34645  24137881.742
  22584221.0794   22584233.1774   -7773292.530 9  -6045924.46247  22584221.029
  22596633.6164   22596644.8724    8624584.829 9   6713228.87347  22596633.509
  22163936.2864   22163947.3484     742439.502 9    579432.14047  22163936.902
 00  6 25  5  3 30.0000000  0  9G26G10G27G 7G 2G24G 4G13G 8
  21904004.7234   21904015.4384   -7714199.327 9  -5987930.16447  21904004.726
                                   3686288.873 7      6050.31042
  23862378.1584   23862391.8894    4870698.588 9   3789796.74046  23862378.495
  20499369.3424   20499379.4224    1395337.025 9   1089384.29248  20499370.080
  22657764.9964   22657776.7754    4358789.554 9   3368304.27946  22657765.443
  24119625.1914   24119647.8734   -3168607.499 8  -2451979.68045  24119625.656
  22569860.2714   22569872.3624   -7848758.431 9  -6104728.91847  22569860.259
  22612904.6524   22612915.9254    8710089.475 9   6779855.75547  22612904.535
  22168646.4654   22168657.5974     767191.532 9    598719.38947  22168647.033
 00  6 25  5  4  0.0000000  0  9G26G10G27G 7G 2G24G 4G13G 8
  21894526.6054   21894537.3134   -7764006.829 9  -6026741.19747  21894526.570
                                   3705940.828 7     21425.89352
  23873068.8284   23873082.3994    4926877.819 9   3833572.63146  23873069.185
  20507458.7324   20507468.7684    1437846.980 9   1122508.91048  20507459.462
  22663536.6194   22663548.3224    4389119.400 9   3391937.86846  22663537.163
  24101333.6654   24101355.9474   -3264727.592 9  -2526877.73945  24101333.951
  22555517.3404   22555529.3014   -7924130.544 9  -6163460.30047  22555517.348
  22629202.2194   22629213.4254    8795732.761 9   6846590.66447  22629202.123
  22173420.1504   22173431.3184     792277.197 9    618266.62347  22173420.703
 00  6 25  5  4 30.0000000  0  9G26G10G27G 7G 2G24G 4G13G 8
  21885143.8504   21885154.5354   -7813313.273 9  -6065161.79947  21885143.807
                                   3725320.780 7     36640.94852
  23883802.8374   23883816.3724    4983284.299 9   3877525.60446  23883803.202
  20515623.8694   20515633.8854    1480754.975 9   1155943.68848  20515624.606
  22669292.7754   22669304.4114    4419367.902 9   3415508.06746  22669293.462
  24083007.0724   24083029.0634   -3361032.289 9  -2601919.66145  24083007.296
  22541192.5174   22541204.4714   -7999407.420 9  -6222117.47047  22541192.536
  22645525.3004   22645536.4444    8881510.562 9   6913430.39546  22645525.274
  22178257.1824   22178268.3624     817695.887 9    638073.34747  22178257.750
 00  6 25  5  5  0.0000000  0  9G26G10G27G 7G 2G24G 4G13G 8
  21875863.2454   21875873.9044   -7862083.356 9  -6103164.46147  21875863.183
                                   3744461.422 7      4575.60242
  23894586.3724   23894599.8754    5039951.384 9   3921681.62746  23894586.725
  20523870.7404   20523880.8104    1524092.630 9   1189713.26248  20523871.489
  22675039.9074   22675051.4364    4449569.040 9   3439041.36346  22675040.556
  24064652.1894   24064674.2224   -3457485.387 8  -2677077.20945  24064652.389
  22526892.8184   22526904.7764   -8074552.072 9  -6280671.60947  22526892.805
  22661879.9274   22661891.0304    8967453.775 9   6980399.01646  22661879.817
  22183164.1354   22183175.3574     843481.995 9    658166.37147  22183164.703
 00  6 25  5  5 30.0000000  0  9G26G10G27G 7G 2G24G 4G13G 8
  21866684.8294   21866695.5184   -7910316.166 9  -6140748.46947  21866684.728
                                   3763361.360 7     19318.37152
  23905419.3424   23905432.9134    5096878.792 9   3966040.50546  23905419.730
  20532198.9444   20532209.0304    1567857.544 9   1223815.76848  20532199.671
  22680778.0834   22680789.5674    4479723.020 9   3462537.89746  22680778.762
  24046269.2884   24046291.2514   -3554084.316 8  -2752348.38945  24046269.516
  22512618.9684   22512630.9444   -8149561.201 9  -6339120.15747  22512618.952
  22678265.3734   22678276.6344    9053559.606 9   7047494.35646  22678265.278
  22188141.1894   22188152.4824     869636.625 9    678546.55147  22188141.743
 00  6 25  5  6  0.0000000  0  9G26G10G27G 7G 2G24G 4G13G 8
  21857609.2124   21857620.0214   -7958008.485 9  -6177911.32347  21857609.162
                                   3782021.204 7     33891.96052
  23916302.2194   23916315.8054    5154068.373 9   4010603.67846  23916302.591
  20540608.4534   20540618.5634    1612049.647 9   1258251.14648  20540609.213
  22686507.7784   22686519.2454    4509832.396 9   3485999.68746  22686508.481
  24027859.3504   24027881.4064   -3650824.512 8  -2827729.66345  24027859.714
  22498371.8714   22498383.8154   -8224429.650 9  -6397459.09347  22498371.844
  22694681.5994   22694692.9034    9139827.136 9   7114715.68646  22694681.464
  22193188.8654   22193200.1994     896162.240 9    699215.80647  22193189.390
 00  6 25  5  6 30.0000000  0  9G26G10G27G 7G 2G24G 4G13G 8
  21848647.8064   21848658.6444   -8005101.030 9  -6214606.82047  21848647.756
                                   3800498.052 7      3222.43542
  23927246.0124   23927259.8374    5211577.914 9   4055416.14646  23927246.438
  20549109.8474   20549119.9864    1656724.644 9   1293062.80648  20549110.627
  22692240.1494   22692251.5594    4539955.548 9   3509472.22746  22692240.789
  24009434.7554   24009456.4164   -3747644.987 8  -2903173.53345  24009435.075
  22484163.1684   22484175.0994   -8299096.322 9  -6455640.79447  22484163.057
  22711139.0054   22711150.4324    9226311.789 9   7182106.19646  22711138.866
  22198318.4544   22198329.8124     923118.066 9    720220.29547  22198319.035
